GFSGL_sfc_wetblb_000.txt.gz
Wetbulb
42.72 41.82 41.05 40.94 41.39 41.05 40.60 41.24 41.72 42.44 42.49 42.51 42.82 42.95 42.90 42.25 42.52 41.53 41.47 42.78 42.99 43.58 43.53 43.97 44.31 44.93 44.43 46.04 48.53 50.32 50.35 49.73 46.49 51.61 53.32 57.26 58.75 58.94 59.24 59.02 60.34 61.10 61.92
42.82 41.47 41.06 41.10 41.07 40.28 40.34 40.84 41.95 41.40 42.15 42.39 42.64 42.82 42.95 42.38 41.72 40.99 41.69 43.39 42.70 42.98 44.12 44.52 44.38 46.42 46.91 47.67 50.36 49.92 50.45 51.07 51.48 49.43 52.77 54.28 57.53 58.12 57.30 56.01 58.62 59.95 60.30
41.57 40.64 40.50 40.41 39.97 39.76 40.39 41.14 41.52 41.45 41.90 42.26 42.75 41.72 42.38 42.75 42.44 42.16 42.19 42.90 43.13 44.06 45.04 44.48 46.69 47.13 48.09 48.71 49.48 50.74 51.57 52.69 53.14 51.90 51.91 55.50 57.41 56.82 55.17 55.69 56.72 57.52 59.29
41.27 40.27 39.59 39.62 39.82 40.32 40.89 40.94 41.28 41.68 41.56 41.24 42.02 42.50 42.91 43.15 42.95 42.70 42.60 42.33 44.15 44.91 45.55 46.26 45.79 46.88 47.94 49.88 50.34 50.77 52.18 52.78 52.65 51.73 50.94 55.73 55.64 55.74 55.45 53.87 53.72 57.02 56.63
40.18 39.79 39.67 40.23 40.64 40.61 40.44 40.90 41.37 41.20 41.36 41.88 42.38 42.62 42.42 42.84 43.49 41.91 42.85 43.04 43.75 44.44 45.75 45.17 46.92 49.32 51.99 53.34 53.74 52.30 53.04 52.40 52.00 51.57 51.10 55.40 54.12 54.06 53.19 54.97 54.32 56.93 57.34
39.67 39.57 40.34 40.75 40.33 40.07 40.51 40.67 40.29 40.34 40.40 41.34 41.22 41.75 41.68 43.34 47.62 49.13 47.31 43.63 44.21 44.48 44.15 44.60 46.77 49.27 50.09 53.19 55.58 56.73 55.09 52.30 51.46 51.38 51.45 53.96 54.14 54.59 54.88 55.37 55.18 55.76 54.01
39.22 39.28 39.69 39.86 39.86 40.08 40.54 40.09 39.34 38.95 39.37 39.64 40.54 40.72 40.75 41.26 47.25 47.96 48.95 44.42 43.34 44.26 44.62 44.86 46.41 48.20 50.10 49.84 54.21 56.69 57.62 57.06 55.50 52.61 53.14 55.63 54.81 56.27 55.69 56.22 55.77 56.06 54.73
38.57 38.76 39.19 39.33 39.48 39.89 39.39 38.81 38.48 38.97 38.94 39.28 40.13 40.69 40.27 41.81 47.29 47.77 47.95 43.68 42.73 44.60 45.13 45.83 46.96 47.26 48.64 50.30 52.52 54.58 55.33 55.96 56.64 56.05 53.83 55.73 57.73 58.67 57.48 58.31 57.49 57.30 57.18
38.51 38.34 39.04 39.37 38.77 39.01 38.36 37.94 38.39 38.56 38.49 39.43 40.52 40.36 40.18 40.81 46.93 47.65 47.22 41.96 42.60 43.76 45.50 47.03 47.45 47.40 50.20 52.05 51.56 52.00 54.19 55.34 58.46 58.23 57.17 57.14 59.55 59.38 59.20 58.92 57.05 56.41 54.87
38.98 39.40 39.60 39.38 39.02 38.51 38.19 37.95 38.40 38.27 39.47 40.70 40.89 41.03 44.04 40.88 45.91 47.35 47.38 42.65 41.45 43.03 44.92 45.83 48.09 48.07 50.51 51.83 51.16 52.29 53.19 55.08 56.16 56.43 56.57 57.34 59.72 59.66 59.58 59.73 58.59 55.57 54.91
40.38 40.18 39.97 39.54 38.96 38.82 38.34 38.19 37.74 37.44 38.59 39.28 39.67 40.39 40.70 41.19 41.67 46.14 46.89 43.21 42.71 42.82 42.70 43.96 45.81 48.57 50.12 51.60 53.91 54.03 54.78 56.52 55.84 54.82 55.82 58.99 59.01 59.20 59.63 60.07 59.89 57.75 55.06
40.09 39.93 39.24 38.70 40.23 41.15 37.57 37.27 37.24 37.22 36.94 37.29 37.78 37.62 39.15 39.78 43.98 44.62 46.21 46.60 46.71 42.17 42.08 44.13 45.46 48.37 51.30 53.13 53.67 55.83 56.78 57.64 57.07 55.97 57.24 58.10 58.06 58.50 59.33 59.83 59.47 58.94 58.42
38.86 37.96 38.27 38.98 38.78 38.61 36.93 36.24 36.24 36.91 37.10 37.21 37.56 37.32 38.55 40.36 40.71 44.69 45.36 45.80 45.87 43.18 43.63 45.29 47.84 49.55 50.67 52.02 53.19 54.28 55.96 57.79 56.82 55.52 56.22 57.69 58.86 59.83 60.23 59.50 58.58 58.36 54.38
37.37 37.05 37.42 37.15 37.72 37.62 38.28 37.65 36.53 36.38 36.12 37.88 38.67 38.10 38.38 39.45 39.75 40.75 41.29 42.12 44.24 43.50 44.58 44.56 47.47 48.80 49.55 50.67 51.33 52.40 56.07 57.73 56.49 56.08 57.30 58.29 59.58 59.49 58.86 58.75 55.08 54.67 54.45
37.02 37.28 37.09 37.66 36.96 36.48 37.27 36.69 37.42 36.64 37.99 37.40 38.80 39.29 38.42 38.65 40.55 43.09 42.89 42.07 42.19 43.29 45.18 45.50 45.44 45.24 45.33 46.87 48.66 49.89 52.83 57.86 56.30 57.70 57.58 57.74 58.27 58.53 57.99 56.85 54.90 53.16 52.02
36.99 36.84 36.72 36.79 36.51 36.79 36.32 36.65 43.65 43.68 44.28 44.35 43.73 42.73 41.24 43.14 43.99 44.17 44.45 45.60 45.79 46.48 44.27 43.52 43.10 43.66 43.79 45.01 46.41 48.09 50.87 56.62 58.24 58.11 58.22 57.88 57.56 57.43 55.97 54.67 53.94 52.54 51.48
36.51 36.90 36.60 38.73 36.64 36.11 36.32 35.41 34.19 38.88 43.79 43.84 44.06 44.27 44.38 44.25 44.98 43.91 43.94 44.88 45.44 45.68 42.56 42.64 42.61 42.86 42.76 43.93 45.28 47.03 48.74 52.22 58.82 58.63 58.09 57.70 57.53 56.78 55.04 53.78 53.49 52.32 51.29
37.71 42.91 37.31 36.89 36.67 36.34 35.99 35.75 36.73 36.40 36.13 37.46 41.92 43.27 44.38 45.59 44.26 44.00 44.47 44.09 41.17 43.02 42.79 42.66 42.22 42.64 42.51 43.10 44.69 46.17 48.54 51.86 58.04 58.19 57.71 57.51 57.29 55.48 54.70 53.72 53.19 52.00 51.60
37.74 36.91 37.12 37.08 37.03 37.96 36.73 36.66 36.92 37.20 37.52 37.46 38.64 41.20 43.14 44.35 43.50 43.41 43.12 39.26 39.37 40.55 41.98 42.73 42.78 42.51 42.55 43.41 44.50 45.96 48.54 51.02 55.59 57.28 57.10 57.07 56.54 55.65 54.59 54.48 53.54 51.75 51.86
37.64 41.73 41.13 37.15 38.17 36.63 36.82 36.77 36.75 37.06 35.48 36.45 37.28 39.28 39.48 40.79 39.28 38.73 38.99 38.97 39.71 40.22 41.72 42.63 42.32 42.54 42.89 43.30 44.24 45.60 48.04 50.69 56.13 56.99 56.30 56.13 55.98 55.65 54.72 53.93 53.06 51.90 52.36
37.18 37.27 39.44 36.58 37.03 39.17 37.23 38.86 38.94 37.02 36.57 36.92 36.95 38.93 42.06 39.59 38.94 37.97 38.32 38.88 39.43 40.24 40.96 42.88 42.33 42.39 43.05 43.31 44.37 45.28 47.18 48.52 51.86 56.92 56.00 55.49 55.70 54.91 55.38 54.53 53.40 53.24 52.42
35.95 36.41 37.30 38.73 39.85 39.57 37.52 37.66 38.54 37.15 37.33 37.28 37.92 39.18 41.17 38.84 39.13 38.16 38.43 39.02 40.23 41.24 41.85 43.27 43.09 43.22 43.38 43.62 44.38 45.19 46.39 47.41 48.42 57.22 56.47 55.79 56.00 55.87 55.79 54.55 53.39 52.74 51.71
38.69 39.08 39.15 38.54 38.15 38.20 37.23 37.56 37.17 37.19 36.47 36.77 37.27 37.91 38.62 38.75 39.33 38.71 38.67 39.64 40.61 41.31 41.99 43.44 43.28 43.78 44.02 44.47 45.04 46.37 45.99 46.47 46.40 50.49 57.04 56.10 56.22 56.17 56.13 54.14 53.32 52.42 52.22
39.85 38.71 37.49 37.16 37.24 36.64 36.37 36.34 36.46 37.12 37.17 37.35 37.44 37.71 38.20 39.14 39.32 39.66 40.22 40.69 41.00 41.08 42.19 43.16 43.58 43.53 43.73 44.33 44.78 46.27 46.44 45.07 45.33 48.62 58.28 56.85 56.59 55.29 55.76 54.44 53.68 53.27 52.79
38.33 37.39 36.81 36.31 36.08 35.95 35.90 35.67 36.00 36.47 36.73 37.48 37.70 38.10 38.59 39.10 39.44 40.11 40.62 40.99 41.67 40.04 41.96 43.12 43.63 43.31 43.89 43.48 44.28 44.69 43.34 41.39 43.88 44.46 58.25 57.48 57.11 56.84 55.38 54.51 53.97 53.73 52.89
37.73 37.24 36.59 36.50 34.29 35.68 35.57 35.44 35.40 35.73 36.24 37.21 37.92 38.23 38.55 38.86 37.36 39.63 40.34 41.28 41.66 39.91 41.99 42.79 43.27 43.06 43.14 42.86 43.53 41.86 41.81 42.23 44.16 44.62 57.16 57.65 56.99 56.11 55.08 54.19 53.42 52.88 52.35

GFSGL_sfc_wetblb_003.txt.gz
Wetbulb
42.61 41.11 39.63 39.02 39.66 39.50 38.81 39.06 39.55 39.98 40.53 41.00 41.46 41.40 41.25 41.17 40.84 39.96 39.45 40.05 40.44 41.34 42.48 43.53 43.81 44.77 45.34 45.04 45.80 46.07 45.01 45.24 43.34 46.09 49.96 50.86 51.50 53.07 61.05 62.68 62.12 62.69 63.48
42.37 40.40 39.19 39.64 39.53 38.46 38.35 38.69 39.39 39.48 40.39 40.62 41.04 41.01 41.38 41.31 40.48 39.60 40.13 41.15 40.66 40.90 42.35 42.71 43.82 45.48 45.00 45.91 45.48 45.79 46.48 47.19 47.57 46.59 49.71 50.85 52.55 54.31 59.07 60.67 61.34 62.33 62.34
40.97 39.33 38.89 38.92 38.28 37.64 37.94 38.90 39.58 39.38 39.75 40.30 40.94 40.06 40.33 41.39 41.10 40.89 41.10 41.28 41.11 41.46 42.23 42.46 44.07 44.79 44.33 44.74 46.20 47.48 48.74 50.70 50.12 48.95 48.33 50.27 53.53 54.93 58.59 59.40 60.43 60.48 61.50
40.02 38.38 37.87 37.55 38.02 38.19 38.69 38.93 39.22 39.56 39.28 39.49 39.45 40.18 40.87 41.57 41.75 41.55 41.63 40.95 40.97 42.26 43.35 44.09 44.84 45.40 44.27 45.42 47.82 48.89 49.94 49.58 50.37 50.02 49.49 49.89 52.55 54.59 57.53 56.88 57.15 58.61 58.99
39.12 38.15 37.87 38.41 38.65 38.60 38.55 38.83 39.11 39.16 39.94 39.46 39.55 40.15 40.72 41.03 42.53 41.43 41.84 41.48 41.36 41.78 43.16 44.52 45.98 47.25 49.48 50.26 50.10 50.14 51.45 50.11 49.69 49.88 50.18 51.42 51.43 51.45 54.59 56.46 55.08 55.89 57.23
38.36 37.99 38.66 38.79 38.58 38.18 38.08 38.45 38.24 38.40 38.01 38.79 38.65 39.07 39.56 41.95 46.62 47.99 47.26 43.24 43.32 43.17 42.04 43.32 45.39 47.42 47.81 51.34 51.57 53.11 53.46 51.21 50.64 51.13 51.02 50.64 51.36 54.06 55.44 54.65 54.53 53.50 53.52
37.97 38.16 38.44 38.49 38.36 38.04 38.40 38.01 37.40 36.90 36.93 37.09 37.49 38.00 38.37 39.86 46.64 48.02 48.34 44.79 42.30 42.05 41.65 43.13 44.26 46.19 47.51 46.91 50.30 52.78 53.38 55.95 54.99 53.08 51.42 51.22 51.54 53.76 55.03 53.63 54.48 53.84 53.41
37.27 37.30 37.44 37.53 37.54 37.67 37.19 36.56 36.18 36.38 36.62 36.59 37.00 37.72 38.31 40.00 47.11 47.87 47.95 44.40 43.63 41.40 42.32 43.33 44.53 45.85 45.18 47.13 48.89 49.61 50.80 53.02 55.43 55.32 53.63 53.24 52.49 56.11 56.49 55.44 55.70 54.87 54.96
36.46 36.48 37.27 37.57 36.88 36.89 36.47 35.86 36.13 36.10 36.12 36.17 37.28 37.06 37.13 38.87 46.04 47.04 45.44 42.44 41.85 41.30 42.82 44.48 45.10 44.58 47.05 50.16 49.08 48.94 49.76 51.57 55.93 57.84 56.37 55.72 55.64 56.34 57.62 56.42 55.08 53.65 52.83
37.10 37.75 37.88 37.41 36.83 36.73 36.36 35.96 36.04 36.10 36.82 37.55 37.33 37.88 41.15 39.38 43.35 45.73 44.10 41.33 40.25 40.89 44.38 44.19 46.05 45.66 48.67 50.09 49.07 49.42 49.76 52.05 55.50 55.80 56.29 56.05 56.44 56.41 58.52 57.53 56.84 54.13 52.64
38.78 38.80 37.99 37.53 37.27 37.09 36.32 35.61 35.66 35.37 35.84 35.39 36.79 37.39 37.41 38.09 38.95 44.84 45.63 42.21 41.10 42.15 41.99 41.56 43.47 46.71 48.63 50.27 52.15 51.26 53.04 55.17 55.75 55.74 56.15 55.42 55.38 55.64 58.03 58.70 58.42 56.25 53.19
38.67 38.06 37.45 36.86 38.45 39.55 35.69 34.97 34.96 34.44 33.67 34.26 35.13 35.77 36.80 37.56 42.52 43.75 45.30 45.38 44.85 40.99 40.56 41.82 43.11 46.74 48.78 50.25 50.29 52.23 54.12 55.54 56.86 55.81 55.11 54.86 54.62 56.89 57.65 58.82 59.00 57.91 57.46
37.16 36.72 36.49 37.40 36.82 36.52 34.72 34.43 33.73 34.19 34.32 34.83 35.66 35.47 36.95 38.87 38.80 43.66 44.66 44.50 44.50 42.52 42.08 43.94 46.18 47.58 48.64 48.41 49.52 50.96 52.75 54.64 56.01 54.56 53.56 54.82 56.39 58.40 58.69 59.04 59.25 58.63 56.91
35.84 35.25 35.45 35.02 35.59 35.34 35.98 35.49 34.10 34.11 33.92 35.62 35.35 35.22 36.06 37.79 38.19 39.49 40.49 41.82 43.73 42.68 43.65 43.03 45.85 46.76 47.14 47.11 47.02 48.23 49.86 52.46 55.80 54.12 54.25 56.72 58.65 58.16 58.22 58.90 57.59 56.60 54.36
35.56 35.22 35.11 35.68 34.94 34.43 35.01 34.84 35.16 34.79 36.15 34.96 35.16 35.99 37.82 37.34 39.02 42.80 42.93 42.40 42.14 42.22 43.94 43.58 43.95 42.98 42.95 43.89 44.49 45.67 47.64 50.64 56.71 56.34 56.06 56.88 57.88 57.88 58.09 58.73 57.21 55.88 53.67
36.28 35.12 34.71 34.90 34.69 34.59 34.30 34.97 41.04 43.24 44.41 44.69 44.53 42.47 41.83 44.08 45.21 45.16 45.71 44.55 44.87 44.90 42.90 41.74 42.15 42.14 41.61 42.45 42.95 43.64 45.64 48.10 52.93 56.59 56.74 57.65 57.81 57.54 57.52 57.06 56.27 55.30 53.24
35.81 35.46 35.12 37.54 34.79 34.38 34.65 33.64 33.34 36.75 42.11 42.98 43.52 43.83 44.32 44.38 45.31 46.28 44.83 44.92 44.04 43.77 39.88 40.59 41.73 42.38 41.65 42.19 42.73 43.27 43.91 46.77 50.74 56.27 57.22 58.08 58.29 58.18 56.50 55.26 54.66 54.56 52.45
36.29 41.59 36.08 35.19 34.86 34.55 34.65 34.69 34.52 34.12 33.88 35.32 40.58 42.16 43.22 44.39 44.93 45.28 45.14 43.40 38.11 39.63 39.08 40.32 41.26 42.67 41.93 41.72 42.45 43.02 44.19 46.48 50.42 56.99 57.21 58.13 58.39 57.69 55.23 54.16 54.11 52.71 51.51
36.92 36.00 35.62 35.17 35.29 36.47 35.55 34.99 35.03 34.98 35.19 36.01 35.65 38.86 41.22 43.19 43.18 43.99 44.16 37.47 36.61 37.14 38.45 40.31 41.75 42.68 41.86 41.84 42.76 43.50 44.85 46.75 49.98 53.95 57.62 58.05 58.18 56.73 54.39 54.03 53.49 51.55 51.22
37.00 40.28 39.24 35.52 35.36 35.20 35.48 35.38 35.22 36.74 37.77 37.04 35.39 35.96 37.85 37.95 36.83 38.11 37.67 37.21 36.41 37.36 38.85 40.28 41.54 42.70 42.07 42.18 42.62 43.53 44.41 46.87 50.08 54.56 58.18 58.16 57.62 56.51 54.23 53.70 52.81 51.42 51.37
36.44 35.81 38.58 34.71 34.83 35.74 38.23 39.39 37.19 35.42 36.68 36.76 36.07 37.84 41.35 38.92 35.74 37.16 37.73 38.09 38.05 37.93 38.97 40.33 41.51 42.72 42.45 42.67 42.88 43.56 44.12 46.03 48.06 49.52 58.04 58.01 56.94 55.86 54.71 53.94 52.90 52.66 51.72
35.10 35.14 35.55 35.89 39.13 39.00 37.78 38.46 37.83 36.77 37.63 36.97 35.25 37.29 40.17 38.56 38.09 38.87 39.32 39.00 37.36 39.89 40.03 40.93 41.76 43.12 43.25 43.07 43.26 43.51 44.18 45.10 46.23 47.84 54.56 57.18 56.42 55.81 54.61 53.41 52.65 52.75 51.75
36.61 38.91 39.05 38.15 38.31 37.82 37.26 37.21 37.04 37.11 36.37 37.11 37.00 37.11 37.89 37.82 37.67 39.47 40.09 40.42 40.02 40.81 40.52 40.95 42.27 42.90 43.72 43.96 44.47 44.38 44.46 44.77 45.42 45.74 47.39 56.28 55.71 55.10 54.07 52.78 52.83 52.06 51.33
39.35 38.14 37.02 36.36 36.67 36.49 36.33 36.02 36.20 36.39 35.90 37.10 37.22 38.04 35.93 37.65 38.32 39.41 40.21 40.73 41.04 41.41 40.20 40.61 42.59 42.80 42.89 43.54 43.68 44.45 45.30 45.62 44.21 45.50 48.51 56.57 55.27 53.76 53.97 53.05 52.72 52.17 51.63
37.82 36.59 36.03 35.79 35.93 33.56 34.19 35.65 35.73 36.12 34.77 34.97 36.66 37.89 38.55 38.67 39.25 39.27 39.28 40.63 41.43 41.81 39.52 40.91 42.37 42.37 42.48 42.70 42.65 43.53 43.69 41.42 42.77 42.67 46.98 54.27 55.95 55.19 54.06 53.26 52.63 52.30 51.98
37.18 36.56 36.17 36.10 35.56 35.54 35.76 35.75 35.67 35.51 33.94 36.31 37.05 37.64 38.06 38.47 38.09 38.45 39.74 40.58 40.75 41.17 39.73 40.87 41.64 42.35 42.38 42.21 42.51 41.54 41.73 42.33 43.65 42.66 47.12 57.10 56.34 55.54 54.22 53.40 52.75 52.38 51.93

GFSGL_sfc_wetblb_006.txt.gz
Wetbulb
42.16 41.22 39.61 38.79 38.15 38.08 38.06 38.43 38.44 38.69 38.77 39.08 39.98 40.06 39.85 39.58 39.50 38.52 38.21 38.82 38.55 39.30 40.18 40.59 41.24 42.40 42.57 43.65 45.10 44.79 44.05 43.49 40.66 43.30 45.04 47.04 48.51 50.08 51.58 53.01 54.38 59.04 63.73
42.85 41.55 40.26 38.89 38.28 37.56 37.54 37.71 38.11 38.12 38.96 39.15 39.51 39.43 39.54 39.56 39.06 38.06 38.14 39.35 39.06 39.04 39.73 40.12 40.78 43.31 42.30 43.71 44.80 44.75 43.95 44.53 43.61 42.71 45.11 46.46 49.06 50.93 51.38 53.16 54.98 62.61 63.39
42.54 41.35 39.67 38.41 37.59 37.15 37.18 37.39 37.88 37.97 38.19 38.63 39.01 38.81 39.10 39.21 38.92 38.82 38.86 39.55 39.72 39.81 40.08 40.21 41.01 41.72 41.57 43.21 44.78 44.11 45.21 46.28 46.40 45.73 45.58 49.62 49.72 50.16 50.31 53.37 54.25 62.25 63.16
42.21 40.52 39.06 37.87 37.58 37.18 37.45 37.61 37.92 38.12 37.63 37.69 38.14 38.55 39.15 39.49 39.64 39.61 39.84 39.46 39.64 40.74 41.13 41.76 42.22 42.54 42.85 44.29 45.51 45.45 46.44 48.05 48.73 48.02 47.40 48.64 49.33 50.08 51.44 52.66 55.35 60.97 61.01
41.13 39.49 38.72 38.25 37.48 37.50 37.52 37.70 37.81 37.48 37.74 37.62 37.82 38.52 38.70 39.26 41.11 39.67 40.56 40.37 40.38 40.61 41.74 42.27 43.26 45.09 49.02 48.41 46.39 46.49 46.40 47.71 49.14 48.49 48.70 48.74 48.57 48.34 48.95 52.06 57.06 59.48 60.48
40.75 39.40 38.61 38.02 37.43 37.21 37.30 37.18 36.68 36.55 36.53 37.06 37.14 37.18 37.39 40.40 45.27 47.01 46.64 42.73 41.73 41.75 41.52 42.76 42.71 45.85 46.20 49.26 49.47 49.73 49.53 49.26 49.77 49.03 48.46 47.82 48.17 50.22 52.12 51.66 56.07 57.20 55.99
39.50 38.80 38.37 38.07 37.49 37.24 37.32 36.73 36.02 35.44 35.46 35.64 35.83 36.43 36.43 36.92 45.35 47.31 47.49 43.48 43.36 42.47 43.04 41.75 41.71 44.17 46.13 45.83 47.51 48.91 50.67 52.04 53.08 52.00 49.67 50.35 50.55 52.09 52.84 52.62 55.84 56.95 56.28
38.41 37.87 37.84 37.35 37.17 36.92 35.98 35.31 34.80 35.09 35.10 35.16 35.78 36.14 35.82 37.90 45.79 47.05 46.92 40.17 39.24 40.29 40.98 41.33 41.68 43.05 45.06 45.24 45.08 47.32 48.05 49.41 51.07 53.41 52.26 53.38 53.80 54.25 53.90 56.95 57.39 57.43 57.21
37.50 37.34 37.20 36.96 35.97 35.59 34.98 34.61 34.63 34.67 34.80 34.98 35.79 35.54 34.74 35.60 44.53 46.32 44.61 39.02 38.87 39.18 40.80 41.63 42.87 42.97 46.21 47.91 46.60 46.60 47.68 49.71 53.51 55.23 56.11 56.03 56.13 55.62 55.52 56.33 55.49 53.84 53.73
37.26 37.32 37.13 36.51 35.82 35.14 35.16 34.73 34.93 34.83 35.56 36.50 36.04 35.33 38.66 37.57 42.66 45.09 44.10 40.33 39.08 40.49 42.21 41.82 44.73 44.27 46.77 48.46 46.92 47.19 46.99 48.71 52.65 54.53 55.28 55.30 56.00 55.75 56.61 56.52 56.25 53.78 53.56
37.87 37.77 36.74 36.03 35.64 35.87 35.16 34.62 34.61 34.45 34.49 33.82 34.44 34.78 35.63 36.95 37.23 44.39 44.68 41.09 40.70 40.39 40.93 40.96 41.32 45.63 47.14 48.81 49.56 47.24 48.15 50.48 51.27 53.59 55.17 54.85 55.17 55.00 55.39 57.26 57.29 55.56 53.34
38.17 37.38 36.32 35.41 37.74 37.78 34.89 34.27 33.82 33.19 32.18 32.30 32.77 34.25 36.07 36.53 42.00 42.89 44.60 44.91 44.50 40.92 40.62 41.17 41.23 45.72 47.39 48.56 47.23 49.11 50.09 49.88 50.53 53.39 54.46 54.22 54.23 53.99 54.92 57.33 57.65 57.09 56.20
36.66 35.60 35.31 35.53 35.55 35.69 33.98 33.38 32.66 32.58 32.26 32.74 33.71 34.39 35.17 36.84 36.72 42.84 44.15 44.79 45.28 42.83 42.71 43.21 45.15 46.26 47.62 46.30 47.13 48.47 48.39 46.71 47.63 48.37 53.65 54.20 54.58 54.95 56.37 57.57 57.78 57.07 55.83
35.83 35.21 34.59 34.36 34.56 34.46 35.19 34.30 32.97 32.79 32.29 33.21 34.14 34.08 34.27 35.36 35.93 37.28 39.01 41.12 43.71 43.76 42.51 41.03 44.82 45.90 46.72 45.82 44.76 45.33 45.77 45.98 46.35 48.28 54.00 55.17 55.82 55.34 56.39 57.69 56.40 55.04 53.28
35.42 34.94 34.68 35.19 36.65 35.38 34.35 33.85 34.09 33.42 34.46 33.31 33.99 34.64 34.40 35.70 38.29 42.90 43.86 42.89 42.85 41.41 42.71 41.23 41.49 41.50 42.26 43.18 42.60 43.44 44.62 45.27 45.85 52.70 54.61 54.98 55.47 55.95 56.31 57.79 56.83 54.85 52.41
35.92 34.61 35.07 35.06 34.95 34.17 33.55 34.10 39.84 41.91 42.95 43.47 43.66 41.60 39.49 43.29 44.63 45.15 45.73 45.69 44.83 44.09 39.96 38.38 38.77 40.38 41.24 42.46 41.34 41.74 43.12 44.53 45.30 47.48 54.92 54.96 55.66 56.22 55.98 56.91 56.76 54.51 52.25
36.10 35.63 35.77 37.12 35.08 33.90 33.73 32.85 32.27 36.20 41.01 41.97 42.88 43.29 43.69 43.18 43.83 44.35 44.78 44.90 44.81 42.32 36.57 36.95 38.10 40.01 41.28 42.41 41.39 41.58 41.79 43.66 45.80 47.15 52.68 55.48 56.09 57.03 56.10 56.55 55.46 54.63 52.32
37.03 40.74 36.00 35.88 34.90 34.38 33.76 33.45 33.33 33.00 32.78 33.86 39.45 41.52 42.63 42.87 43.02 43.33 43.75 43.56 36.34 37.29 36.08 36.41 37.79 39.97 41.52 42.16 41.36 41.54 42.34 43.51 45.02 47.30 49.81 56.18 56.66 57.35 56.58 55.52 55.37 53.98 52.22
37.10 37.10 36.37 35.83 35.64 35.95 34.35 33.84 33.70 33.65 33.97 35.06 38.13 38.71 39.68 41.47 42.25 42.68 42.74 36.89 34.70 34.65 35.51 36.73 38.36 40.30 41.74 42.55 41.86 42.18 42.80 43.46 45.16 47.31 50.96 56.79 57.74 57.60 56.22 55.60 55.57 52.65 51.86
37.95 40.74 38.49 36.05 35.61 34.44 33.97 33.96 34.22 35.75 37.03 36.66 36.49 34.93 35.87 36.48 35.47 36.16 36.84 36.80 35.02 34.88 35.63 36.91 38.31 40.62 42.13 42.93 41.95 42.23 42.78 43.42 44.92 46.44 48.05 57.06 58.36 57.48 56.06 55.36 55.02 52.05 51.74
37.55 37.47 38.89 35.59 35.18 35.19 35.53 38.76 38.57 37.41 37.03 37.11 36.18 37.11 40.33 37.24 34.74 34.68 35.52 36.54 38.11 35.60 36.91 39.03 38.74 40.59 42.44 43.20 42.10 42.33 42.48 43.14 44.85 45.97 46.81 52.31 57.84 56.04 56.26 55.62 53.90 52.52 51.91
35.58 35.60 36.40 36.46 37.33 37.85 36.95 37.96 37.67 36.96 36.93 36.77 35.60 36.04 39.68 38.46 37.72 36.37 37.32 39.53 40.15 39.78 39.99 40.09 39.52 40.94 42.46 43.11 42.35 42.31 42.08 42.64 44.24 45.33 45.29 46.40 56.96 55.93 55.58 54.55 52.78 52.14 51.15
36.48 37.75 37.92 36.69 37.68 36.98 36.51 36.45 36.25 36.26 36.42 34.91 36.46 37.36 37.52 35.28 35.17 36.13 38.25 39.94 40.29 40.41 40.82 40.83 40.19 41.10 43.18 43.67 43.69 43.49 42.19 42.49 44.43 45.07 44.15 45.65 53.08 55.28 54.67 53.17 52.32 51.32 50.45
38.28 36.97 35.66 35.31 35.92 35.79 35.10 34.03 35.83 36.22 36.05 34.78 34.83 36.31 37.37 36.99 36.29 37.15 39.61 39.35 39.77 41.02 41.83 41.07 40.56 41.71 42.59 42.72 43.28 43.37 43.28 44.24 44.14 44.28 45.10 45.93 50.21 53.54 54.24 53.05 52.63 51.52 50.44
36.86 35.57 35.37 35.10 35.33 35.14 34.88 34.06 35.34 35.89 35.82 35.10 34.26 35.42 36.49 36.75 36.37 37.33 38.62 39.30 40.39 40.74 41.15 40.65 40.75 41.42 41.87 41.80 42.27 42.33 42.50 40.69 41.64 41.86 45.07 47.82 50.79 54.59 53.97 53.27 52.70 51.80 50.52
36.59 36.03 35.75 35.61 35.49 35.15 35.31 35.26 35.42 35.32 35.25 35.13 35.38 35.48 35.26 35.50 36.08 37.81 38.95 39.83 40.57 41.00 41.26 39.58 40.35 41.20 41.62 41.76 41.99 40.77 40.65 41.18 42.09 41.82 43.10 47.88 54.03 54.20 53.55 53.16 52.31 51.62 50.50

GFSGL_sfc_wetblb_009.txt.gz
Wetbulb
41.45 41.42 41.26 40.20 39.52 38.43 38.15 38.20 38.44 38.24 38.46 38.63 38.79 38.81 38.93 38.60 38.30 37.17 36.71 37.27 37.05 37.37 38.20 38.49 39.13 40.15 40.22 41.02 41.77 42.18 42.25 43.16 40.67 42.39 43.51 44.53 44.75 46.01 46.11 49.39 52.18 52.87 53.61
41.50 41.13 40.57 40.31 38.98 37.31 37.16 37.32 37.79 37.64 38.11 38.36 38.56 38.47 38.41 38.28 37.82 36.82 36.69 37.66 37.03 37.03 38.09 38.49 39.02 41.33 39.98 41.07 41.68 41.46 42.49 43.93 43.13 40.91 42.96 43.34 44.64 46.81 47.68 48.43 51.98 54.58 55.37
41.60 40.82 40.28 39.36 38.19 37.16 37.11 36.92 36.95 37.07 37.38 37.72 38.19 37.75 37.74 38.04 37.63 37.57 37.31 37.50 37.66 37.96 38.65 38.88 39.47 39.97 39.64 40.59 41.08 41.51 43.73 45.25 45.55 44.07 43.77 46.84 47.14 48.40 48.31 50.53 51.89 52.54 54.34
41.81 40.95 40.02 38.74 38.55 38.01 37.62 36.73 36.80 37.08 37.02 36.97 37.10 37.28 37.87 38.10 38.30 38.19 37.95 37.63 37.92 39.38 40.10 40.68 40.61 40.79 40.73 40.98 41.80 43.51 45.34 45.45 45.01 44.39 44.84 46.84 46.62 48.84 49.40 48.04 49.33 52.49 54.19
41.68 40.85 40.33 39.79 38.92 37.67 36.99 36.71 36.98 36.87 37.08 36.73 36.54 37.15 37.63 37.86 39.60 37.85 38.61 38.88 39.19 39.74 40.79 41.71 42.04 44.17 48.43 47.55 44.87 45.10 45.29 44.61 44.68 44.64 46.87 47.66 46.96 48.21 47.52 49.86 50.34 51.86 56.61
41.54 40.61 40.14 38.74 38.05 37.51 37.11 36.47 36.28 36.26 35.51 35.91 35.83 36.36 36.23 39.13 44.04 45.97 45.34 40.59 40.62 40.26 40.48 40.59 41.68 44.54 44.11 47.97 48.71 48.91 47.35 45.55 45.87 46.73 48.00 47.77 47.63 45.88 48.55 49.05 49.39 49.63 56.03
41.08 40.41 39.19 38.65 37.98 37.30 37.14 36.17 35.38 34.55 34.57 34.99 35.11 35.20 35.18 35.52 44.51 46.01 46.64 41.08 39.42 37.98 38.21 39.21 40.24 42.51 44.21 43.01 46.17 48.22 47.86 50.41 50.91 49.38 48.75 49.27 47.46 49.21 50.34 51.00 51.08 50.48 57.47
40.49 39.29 39.06 38.62 38.00 37.04 35.79 35.02 34.06 34.02 34.35 34.14 34.55 34.92 34.77 36.89 44.72 45.96 46.54 39.78 37.76 38.18 38.70 39.44 39.62 40.24 41.91 43.67 43.12 44.76 46.42 47.48 49.05 50.97 51.86 51.89 49.80 53.12 53.37 53.13 53.46 52.64 59.20
38.97 38.37 38.44 38.52 37.26 36.13 34.61 33.70 33.55 34.02 33.75 34.00 34.89 34.71 33.91 34.34 43.10 45.86 44.40 38.35 37.79 37.85 39.41 40.03 40.37 41.14 44.72 46.87 44.48 45.27 46.45 46.51 50.20 52.44 53.14 55.45 55.36 55.46 54.65 54.19 53.46 55.25 55.65
38.34 38.44 38.41 38.13 37.07 35.67 34.50 33.68 33.86 33.96 34.90 35.51 35.23 34.48 37.59 35.87 41.73 44.80 43.43 38.75 36.55 38.65 40.98 41.02 44.72 43.04 46.04 46.89 45.01 46.23 43.36 45.00 48.09 48.79 50.33 55.27 55.24 55.29 56.14 54.79 55.57 55.91 55.53
38.93 37.93 37.21 36.96 36.29 35.75 34.21 33.68 33.94 33.95 34.01 33.49 33.72 33.56 33.46 35.14 36.35 44.10 44.65 39.30 40.07 40.83 40.89 40.71 41.64 45.13 46.23 47.05 48.13 45.60 45.90 48.47 47.92 47.47 50.68 54.23 54.40 54.58 55.23 56.02 56.56 57.87 55.45
37.60 37.12 36.39 35.42 37.71 36.70 34.10 33.73 33.50 33.01 32.07 31.81 31.38 32.19 34.10 35.18 40.99 42.68 44.36 44.42 43.74 40.29 41.16 41.99 42.01 45.05 46.58 47.28 47.18 48.11 48.73 47.94 45.94 46.25 47.93 52.50 53.06 53.53 54.72 55.90 57.03 58.14 57.67
37.06 35.96 35.53 35.43 35.95 35.23 33.92 33.61 32.57 32.02 31.62 31.59 31.85 32.05 33.49 35.88 35.71 42.35 43.93 44.71 45.26 43.28 43.46 44.31 45.07 45.69 46.26 45.51 46.77 47.80 46.96 44.65 44.76 44.70 45.40 47.56 54.26 55.14 54.99 56.51 56.90 57.47 54.25
36.42 35.18 34.79 35.39 34.53 34.72 35.50 34.49 32.85 32.23 31.63 31.93 32.12 32.63 33.42 34.26 35.06 36.19 37.43 38.39 42.85 43.01 43.18 39.19 43.10 44.09 44.86 44.83 45.03 45.18 44.03 44.24 44.58 44.79 45.43 47.57 54.95 54.59 54.34 56.22 55.33 54.60 52.15
36.42 35.47 35.48 36.71 36.29 34.96 34.76 34.17 33.53 33.68 34.26 32.71 32.90 33.49 33.66 34.33 36.35 41.61 42.63 41.43 41.10 41.09 41.37 38.81 38.34 38.58 39.16 41.05 43.30 43.29 42.99 43.57 43.73 44.67 45.34 49.69 54.41 54.21 54.33 56.39 55.45 53.65 51.59
36.55 36.32 36.46 35.89 36.17 35.30 34.49 34.30 40.68 41.44 43.10 43.67 42.90 41.00 38.41 42.13 43.71 43.86 44.35 44.71 44.87 45.29 38.28 35.60 35.69 36.81 37.92 40.25 41.87 41.59 41.92 42.85 43.43 44.24 45.38 49.84 54.28 53.95 54.41 55.93 54.95 53.01 51.07
36.76 36.30 36.91 36.97 35.91 35.12 35.22 34.74 33.76 36.29 40.75 41.52 42.34 42.60 42.85 43.00 43.27 43.08 43.62 43.94 44.19 42.63 34.96 34.41 34.94 36.25 37.72 40.43 41.94 41.62 40.69 42.27 43.88 44.62 45.38 48.15 54.93 54.71 54.69 55.37 54.23 52.69 50.98
37.42 40.70 37.56 36.72 36.37 35.71 35.34 34.69 34.37 33.63 32.00 32.96 38.72 40.83 42.23 42.09 42.04 42.53 42.99 42.24 36.02 36.28 34.32 34.19 34.71 36.28 37.70 40.16 41.93 41.55 41.16 42.27 43.02 44.10 45.75 49.13 54.92 55.18 55.37 55.44 54.00 52.18 51.04
38.56 37.57 37.15 37.10 36.63 36.76 35.41 34.70 34.02 33.46 32.91 33.61 35.08 38.41 38.96 40.61 41.37 42.07 41.94 35.74 34.28 33.93 34.12 34.24 35.35 36.37 37.97 40.67 42.59 42.13 41.71 42.06 42.92 43.62 45.64 47.36 52.40 55.34 55.53 55.54 54.31 51.95 51.21
37.94 39.92 38.43 37.05 37.19 35.69 34.80 34.48 34.02 34.00 34.64 37.60 36.78 35.34 34.89 35.15 34.27 34.90 35.39 35.03 34.72 34.77 34.41 34.42 35.43 36.53 38.69 41.22 42.77 42.00 41.56 41.94 42.21 43.16 44.68 46.20 47.09 56.23 56.20 55.43 54.25 52.22 51.16
38.81 39.13 39.28 36.16 35.65 35.81 35.84 36.56 37.87 35.30 35.67 34.82 37.18 37.89 40.19 36.14 34.58 35.79 34.29 35.19 36.30 38.85 37.95 38.41 37.84 36.60 39.08 41.34 42.77 41.71 41.32 41.80 42.09 42.85 44.02 45.27 45.93 55.48 56.85 56.20 54.20 52.89 50.91
35.79 35.84 36.40 36.46 37.59 37.67 36.72 36.29 34.62 33.91 34.07 35.89 36.26 36.91 39.44 37.95 37.37 35.94 35.08 36.15 37.26 39.00 40.34 39.56 39.63 37.77 39.52 40.79 42.54 42.00 41.08 41.37 41.87 42.66 43.61 44.23 44.91 49.33 56.63 55.83 53.73 52.51 51.12
36.51 37.13 37.87 36.92 36.98 36.74 35.88 34.92 34.55 34.40 35.37 36.03 33.95 34.99 35.83 36.30 34.53 34.62 35.86 37.25 37.78 38.01 38.99 40.92 40.06 38.49 40.04 42.16 43.40 43.22 41.88 41.63 42.33 43.38 42.98 43.15 44.41 46.78 56.51 54.58 53.48 51.94 51.25
38.18 36.97 35.56 35.10 35.55 34.97 33.90 31.77 32.36 34.71 34.24 35.29 34.58 33.81 33.76 35.85 37.69 35.72 36.25 36.99 37.08 38.49 39.97 39.59 39.78 38.74 40.37 41.83 42.51 42.85 43.06 43.11 43.19 42.65 43.22 42.90 43.72 45.96 55.47 53.86 53.34 52.06 50.77
36.32 35.40 34.90 34.54 34.46 33.91 34.15 32.63 32.81 33.40 34.67 35.61 34.32 33.93 33.78 34.48 35.60 35.79 36.00 36.51 38.78 39.05 39.56 40.21 40.63 38.83 40.50 41.33 41.67 42.00 41.87 40.15 40.71 40.94 42.77 43.53 45.04 47.36 54.73 53.62 52.89 51.64 49.97
35.99 35.57 35.42 35.17 35.05 34.91 33.03 32.05 34.05 35.16 35.25 35.43 34.84 33.23 36.78 36.32 34.09 35.35 36.21 36.50 38.77 38.36 39.14 41.04 39.13 38.99 40.29 41.46 41.71 40.61 40.04 40.49 40.97 40.91 41.92 44.26 47.09 50.21 54.35 53.19 52.01 50.61 49.79

GFSGL_sfc_wetblb_012.txt.gz
Wetbulb
41.66 41.61 41.16 40.32 40.02 39.46 39.20 38.94 38.76 38.08 38.07 38.33 38.77 38.59 37.99 37.88 37.71 36.33 35.72 36.13 35.86 35.97 36.68 36.77 37.45 38.27 38.30 39.04 39.77 40.34 40.07 40.17 38.44 40.18 42.63 44.81 45.37 45.24 45.80 46.67 47.80 47.44 48.16
41.99 41.19 40.45 40.51 40.00 38.84 38.59 38.42 38.24 38.05 37.92 38.34 38.26 37.88 37.93 37.99 37.13 35.98 35.79 36.60 35.87 35.82 36.68 37.02 37.62 40.28 38.55 39.19 39.66 39.59 40.19 41.03 40.21 39.32 42.56 43.96 45.14 46.47 46.33 46.16 47.05 48.63 50.44
41.21 40.81 40.29 39.88 39.17 39.06 38.51 37.65 37.44 36.95 37.08 37.36 37.54 37.27 37.47 37.48 36.69 36.36 36.30 36.51 36.38 36.47 37.05 37.31 38.23 38.72 38.22 39.16 39.55 39.81 40.64 41.99 41.81 41.92 42.72 44.98 45.45 46.42 46.21 47.54 47.33 47.51 50.58
40.77 40.42 39.51 39.13 39.40 39.17 38.39 37.24 37.09 36.77 36.29 36.27 36.70 37.30 37.44 37.11 37.38 37.41 37.03 36.35 36.49 37.77 38.68 39.26 39.31 39.38 39.28 39.73 40.51 41.03 41.91 42.10 44.06 43.82 42.98 44.19 45.46 47.65 48.14 46.69 46.78 48.78 49.57
40.28 39.96 39.77 39.68 39.82 38.82 37.38 37.02 36.99 36.27 36.51 36.48 36.13 36.22 36.43 37.20 38.60 36.33 36.93 37.23 37.46 38.21 39.55 40.09 41.01 42.75 47.08 45.91 43.32 42.08 42.39 42.20 42.71 43.11 43.07 44.60 44.93 46.35 46.13 47.91 47.42 49.09 50.17
40.53 40.05 40.25 39.34 38.83 38.02 37.57 36.78 36.36 35.74 35.46 35.42 35.11 35.74 35.89 38.52 43.30 45.53 44.40 38.77 39.47 39.10 38.46 38.78 39.54 43.56 42.71 46.94 47.68 47.77 46.30 43.61 43.05 43.69 44.99 44.56 46.35 48.18 48.87 48.45 47.64 47.83 47.19
40.96 40.74 39.92 39.47 38.62 37.99 37.63 36.59 35.65 34.83 34.02 34.25 34.62 35.07 34.80 34.90 43.89 46.02 45.72 39.97 38.85 37.69 36.88 37.36 38.63 41.56 43.29 40.99 44.62 47.27 46.81 48.18 49.32 47.85 46.22 45.94 48.09 49.60 49.47 48.59 48.78 49.50 50.08
40.73 40.06 39.80 39.24 38.65 37.91 36.89 36.39 34.09 33.78 33.83 33.56 34.04 34.25 34.17 36.06 44.43 45.73 45.63 39.12 37.59 37.39 37.55 37.69 37.90 38.86 40.11 42.43 42.92 43.12 44.04 45.55 47.63 47.38 47.84 49.14 50.42 51.93 51.13 50.89 50.64 51.80 52.87
40.39 39.78 39.51 39.30 38.09 36.99 36.32 35.07 33.51 33.53 33.03 33.49 34.38 33.99 33.36 34.21 42.99 44.89 43.81 38.03 37.21 36.98 37.93 38.48 38.75 40.14 44.23 46.21 43.21 43.19 43.79 45.67 48.32 50.93 51.16 51.43 53.56 55.29 53.83 53.03 51.11 51.11 51.18
40.41 40.15 39.99 39.54 38.23 36.95 36.23 34.49 33.02 33.48 34.24 34.82 34.30 33.77 37.67 34.42 41.47 43.75 43.40 38.13 35.89 36.67 37.86 39.51 44.60 43.51 45.79 46.28 43.73 43.61 43.52 43.89 46.90 46.63 46.49 48.55 52.21 54.85 55.53 53.33 53.88 53.08 53.20
41.48 39.94 39.06 38.95 37.95 37.39 35.43 34.31 34.10 33.58 33.99 33.82 34.27 33.36 32.95 33.97 33.98 43.15 44.71 39.14 37.58 37.65 38.37 39.39 41.62 45.42 46.31 46.90 47.06 43.60 44.78 47.78 46.02 44.84 46.09 47.53 50.39 54.04 54.46 55.23 55.24 54.35 55.91
39.30 38.23 37.55 37.15 38.44 36.57 35.35 33.84 33.56 33.37 33.18 32.22 32.33 32.43 32.66 33.20 40.07 42.85 44.41 44.69 43.73 38.28 38.32 41.09 41.26 45.38 45.83 46.25 45.59 47.18 48.81 46.65 44.10 44.24 44.84 45.75 48.37 53.15 53.90 54.60 56.50 57.59 58.03
37.58 36.52 35.89 36.60 35.94 35.62 34.77 33.43 32.93 32.69 32.71 31.97 32.08 32.03 32.45 34.12 34.95 41.87 43.93 44.54 45.01 42.43 41.68 43.43 45.23 44.85 44.84 43.78 45.34 46.94 47.18 43.69 43.07 43.05 43.41 44.59 46.57 48.25 54.61 55.55 57.24 57.22 56.16
35.61 35.57 36.12 35.50 35.15 36.17 36.21 35.71 34.57 33.03 31.86 32.59 32.26 32.01 32.01 33.32 34.30 35.62 36.65 37.49 42.18 42.23 43.14 39.83 41.88 42.31 42.94 42.90 42.55 44.18 44.57 43.58 43.37 43.19 43.32 44.91 46.90 48.78 53.86 55.20 55.26 54.47 53.52
35.23 35.57 35.91 37.63 36.20 35.54 36.05 35.87 35.53 33.96 35.17 32.95 33.04 32.72 32.43 33.05 35.99 40.17 41.05 39.47 39.49 41.35 42.94 37.64 35.97 35.83 36.35 37.64 39.80 41.91 43.68 43.20 42.52 43.38 43.52 44.55 46.25 49.39 53.98 55.42 54.78 54.02 52.20
35.36 36.19 37.11 37.02 36.44 36.27 35.61 35.70 40.11 39.45 41.81 41.94 41.29 37.66 37.86 41.51 43.33 43.99 43.82 43.84 44.02 44.51 38.87 34.49 33.55 34.21 34.73 36.29 38.00 40.44 42.38 42.44 42.19 43.12 43.77 44.90 46.07 49.81 53.64 55.20 54.29 53.30 51.19
36.50 36.99 37.96 37.61 36.36 35.40 35.29 34.78 33.12 37.76 43.44 43.09 42.89 42.87 42.81 42.20 43.16 42.93 42.91 43.13 43.53 41.89 34.11 33.39 33.15 33.90 34.62 36.07 38.31 40.88 41.49 41.82 42.59 43.31 43.51 44.45 46.83 50.42 53.47 54.58 53.20 52.15 50.66
38.17 40.74 37.30 36.50 36.14 35.32 35.24 34.66 34.29 33.65 33.43 33.73 38.67 40.37 41.71 41.88 41.64 41.95 42.58 41.57 34.86 35.31 33.50 33.27 33.31 33.98 34.72 35.78 38.34 40.89 42.01 41.61 41.83 43.04 43.21 44.02 45.86 48.39 53.55 54.26 52.91 51.56 49.70
38.91 37.86 37.36 36.83 36.26 36.47 35.45 34.79 34.70 34.97 34.39 33.91 34.22 37.94 38.79 40.16 40.83 41.39 41.24 34.84 32.91 32.89 33.55 33.51 33.97 34.20 34.88 36.14 39.62 41.22 42.25 41.14 41.80 42.58 43.00 43.34 44.88 46.49 53.74 54.29 52.93 51.02 50.16
38.44 39.53 38.02 36.22 36.61 34.90 34.89 34.50 34.39 34.85 35.18 35.06 35.06 35.87 34.59 34.90 33.30 33.81 34.43 33.97 33.24 33.47 34.00 34.45 34.60 34.58 35.35 37.00 40.48 40.75 41.85 41.05 41.28 42.29 42.65 43.26 44.65 46.10 50.23 54.61 52.97 50.97 50.45
38.30 38.76 39.18 35.76 34.58 34.67 35.26 35.63 36.39 36.49 36.16 34.95 33.49 36.42 39.41 35.75 33.87 35.15 34.11 33.75 34.55 35.20 35.92 36.75 38.08 39.03 36.59 37.74 39.31 40.76 41.90 41.15 41.32 42.19 42.61 43.07 44.09 44.04 46.51 55.24 53.29 52.11 51.02
36.96 36.70 35.67 35.16 35.87 36.98 36.30 36.08 34.83 33.66 34.30 33.60 34.78 35.74 38.42 36.04 35.43 36.78 33.94 34.46 35.27 36.38 37.24 37.55 37.64 39.92 37.31 37.93 39.73 40.93 41.70 41.13 41.25 42.16 42.50 43.02 43.40 44.18 46.03 51.38 53.36 52.31 51.02
36.04 35.87 36.17 36.01 36.37 37.07 35.16 34.85 34.32 34.32 34.23 34.08 34.78 33.77 34.19 33.34 35.30 35.18 34.58 35.24 35.99 36.16 36.71 37.26 38.86 38.00 37.91 38.69 40.54 42.22 41.74 41.42 42.03 42.74 42.03 42.20 42.44 43.21 44.94 50.84 53.32 51.96 50.74
37.38 36.66 35.57 35.39 35.52 34.65 33.80 33.09 33.41 34.67 33.88 33.50 33.90 33.63 31.94 32.92 34.40 36.76 34.84 35.21 35.61 36.57 37.40 38.03 38.17 37.58 38.00 38.64 40.42 41.75 42.09 42.91 42.75 42.02 42.38 41.70 41.46 42.41 44.44 49.97 53.45 51.78 51.61
35.60 34.54 34.49 34.09 34.41 33.90 33.66 33.21 33.36 32.42 32.67 33.86 34.45 33.42 32.08 33.08 34.50 34.82 34.54 35.05 35.48 37.88 37.07 37.85 38.44 38.25 37.80 38.35 39.57 41.12 41.00 39.76 40.64 40.53 42.00 42.04 41.71 42.69 45.17 51.72 53.47 52.12 50.54
35.25 34.72 34.46 34.84 34.62 34.06 33.27 32.37 30.85 34.52 34.79 35.60 35.41 33.28 34.85 36.32 35.83 33.86 34.62 34.85 37.02 39.02 38.57 37.91 39.06 38.81 38.11 38.98 40.34 40.28 39.92 40.33 40.69 40.61 40.84 42.05 43.95 45.86 48.29 53.43 53.03 51.94 50.18

GFSGL_sfc_wetblb_015.txt.gz
Wetbulb
46.16 46.75 46.62 45.90 46.15 46.20 45.58 45.70 45.69 45.80 45.69 45.26 44.93 44.78 44.76 44.67 44.80 44.49 44.60 44.27 43.33 43.85 44.17 43.70 43.74 44.64 44.33 44.88 45.27 45.02 44.37 44.21 42.06 43.89 45.87 47.17 47.07 47.38 48.05 48.47 48.97 49.60 50.48
45.90 45.83 45.94 45.69 45.73 45.60 45.56 45.50 45.73 44.97 45.15 45.17 44.84 44.56 44.36 44.39 44.49 43.82 43.46 43.51 43.33 43.12 43.43 43.66 43.46 44.24 44.72 45.33 45.11 44.70 44.65 45.03 44.04 42.47 44.86 45.85 46.25 46.86 48.95 47.20 47.36 48.99 49.51
45.09 44.92 45.38 44.80 44.82 45.29 45.33 45.27 44.91 44.96 44.53 44.59 44.42 44.01 43.74 43.84 43.70 43.54 43.40 43.42 43.41 43.29 43.37 43.58 43.99 44.47 44.33 44.89 44.78 44.32 44.75 45.02 45.23 44.40 43.10 46.08 47.20 48.69 46.37 47.59 47.75 48.05 49.73
44.60 44.49 44.37 44.29 44.99 45.32 45.41 44.78 44.33 44.48 43.93 43.88 43.98 43.71 43.63 43.62 43.40 43.20 43.12 43.31 43.26 43.40 44.11 44.50 44.70 44.90 44.49 44.26 44.67 45.03 45.07 45.52 45.34 44.70 44.79 45.41 44.63 46.07 46.64 45.72 45.56 48.78 48.05
43.65 43.65 44.23 44.74 45.15 45.12 44.59 44.21 44.04 43.65 43.67 43.61 43.13 43.16 43.44 43.10 42.80 43.32 43.32 43.45 43.65 43.93 44.72 45.27 45.75 45.74 46.95 46.82 45.05 44.95 45.93 44.86 44.42 43.59 44.01 42.98 42.85 44.21 45.24 47.00 47.52 48.41 50.68
43.34 43.16 44.56 44.04 44.05 43.94 43.77 43.48 43.09 42.83 42.70 42.53 42.49 42.43 42.00 42.10 44.59 45.82 44.99 44.75 44.57 44.32 44.48 45.23 44.95 44.97 44.77 46.34 46.90 47.03 46.45 43.02 42.35 43.79 42.33 42.33 44.67 44.92 46.11 48.21 49.12 47.89 46.12
43.21 43.32 43.65 43.26 43.04 42.90 43.13 42.85 42.51 42.18 42.00 41.82 42.01 41.99 41.89 42.80 46.01 46.73 46.66 45.50 44.82 44.93 44.51 43.67 43.17 43.44 44.75 44.27 45.31 46.74 46.72 47.47 47.55 45.28 43.49 44.74 44.39 45.95 47.37 47.34 48.62 48.83 49.31
42.73 43.01 43.23 42.83 42.65 42.64 42.37 42.15 42.41 42.11 41.46 41.32 41.42 41.69 42.15 42.24 45.38 46.65 46.46 45.39 44.82 44.76 44.07 43.76 43.39 43.45 44.15 44.29 44.15 44.01 44.25 45.05 46.47 46.74 46.97 47.28 48.67 49.04 48.89 49.71 50.06 51.41 52.27
42.35 42.90 43.02 42.92 42.47 41.98 41.65 41.74 41.88 41.26 41.11 40.84 41.33 41.15 41.35 41.87 45.38 46.37 45.65 44.71 44.16 43.74 43.80 43.87 44.09 44.20 45.62 46.66 43.93 43.39 44.46 46.07 48.05 48.99 50.52 50.05 50.75 51.73 53.54 51.85 50.43 49.61 48.29
43.27 43.10 43.47 43.13 42.74 41.68 42.26 41.61 41.48 41.49 40.63 40.91 40.48 41.45 42.03 41.94 43.78 45.52 45.33 44.25 42.66 42.64 43.50 43.98 44.79 45.26 46.50 47.09 44.68 45.01 43.85 44.89 45.10 47.01 46.42 47.36 48.89 50.20 54.51 54.64 52.98 49.54 50.92
44.73 43.89 43.36 43.26 42.63 42.83 42.25 41.67 40.69 41.03 40.49 40.30 40.34 40.48 41.01 42.50 42.14 44.12 45.03 44.16 43.06 42.45 42.33 42.91 44.10 45.68 46.78 46.64 46.36 45.60 45.09 46.36 45.52 44.66 45.32 46.04 47.21 51.05 55.07 55.48 56.00 54.44 53.19
44.23 43.47 42.50 42.42 42.02 41.64 41.08 40.50 40.69 40.35 39.95 39.34 39.65 39.25 39.80 40.11 42.46 43.23 45.10 45.50 45.17 43.40 42.82 43.86 45.21 46.12 46.22 45.31 45.52 46.36 47.21 47.33 44.51 44.22 44.31 44.28 45.08 46.85 49.40 55.75 56.49 56.84 58.22
43.43 41.85 41.15 41.59 41.59 40.75 40.02 39.18 39.03 40.04 39.52 38.52 38.38 38.64 38.54 39.18 40.21 43.61 44.85 45.11 45.00 44.14 45.17 45.66 46.51 45.79 44.89 43.90 44.41 45.76 46.19 45.57 43.53 43.07 43.05 43.62 45.31 47.81 49.86 56.07 57.32 58.43 59.03
40.92 39.89 39.45 39.92 38.77 39.84 40.04 40.03 38.92 38.94 38.90 37.97 37.66 37.73 38.39 38.75 39.52 40.41 41.63 42.79 43.72 44.52 44.61 45.26 44.97 44.75 42.83 42.72 43.10 44.31 44.79 45.32 43.72 42.82 43.35 44.75 46.74 47.71 49.81 54.64 55.06 55.24 54.58
38.96 38.46 38.24 39.31 38.81 38.78 39.41 39.52 39.82 40.41 40.56 38.49 38.10 38.63 38.10 37.64 39.35 41.65 42.20 43.42 44.12 43.88 44.84 44.75 43.36 41.64 40.45 40.99 41.99 43.06 44.04 44.42 42.84 43.07 43.53 44.04 45.25 47.03 48.70 55.31 55.09 54.91 52.19
37.47 38.11 38.91 38.23 38.71 38.47 38.72 39.18 41.47 41.31 42.16 41.81 41.57 40.31 39.64 41.37 42.91 43.72 44.47 43.79 43.68 44.07 43.23 42.09 41.36 40.02 39.43 39.94 40.31 41.55 43.20 43.67 42.92 42.85 43.33 44.06 44.59 45.85 47.90 54.97 54.69 54.31 51.16
38.37 38.19 38.69 38.66 38.38 38.37 39.02 39.12 37.72 41.39 43.14 43.24 43.20 43.40 43.50 42.59 43.68 43.61 43.23 42.88 43.28 43.35 40.79 40.17 39.60 39.54 39.46 39.88 40.34 41.19 41.53 44.01 43.43 42.96 43.16 43.79 44.53 45.41 47.26 53.92 53.61 53.02 51.06
40.77 40.93 39.24 39.11 39.11 38.89 38.98 38.29 38.50 38.24 38.00 38.34 41.92 42.53 43.05 43.03 42.62 41.77 41.93 42.37 40.61 39.36 39.25 38.99 39.25 39.62 39.78 39.74 40.25 40.70 41.96 44.20 42.91 42.36 42.74 43.72 44.11 44.78 46.07 52.25 53.37 51.68 50.95
40.36 39.76 39.45 39.18 38.84 38.35 37.65 37.51 37.06 37.25 37.05 37.31 38.45 40.62 42.11 41.53 40.98 41.25 41.49 40.09 38.11 38.19 39.07 39.37 40.02 39.92 39.99 40.40 40.85 41.47 42.60 43.50 43.07 41.81 42.54 43.15 43.83 44.37 45.15 49.41 53.26 50.43 50.99
39.92 40.53 39.54 38.40 38.62 37.51 37.34 36.64 36.42 36.48 37.50 37.63 38.21 38.14 38.40 39.11 37.53 38.02 38.84 38.28 38.12 38.81 39.37 39.64 40.43 40.84 40.45 41.29 41.37 41.94 42.70 43.10 42.87 41.84 42.07 42.92 43.70 44.20 44.33 45.67 52.76 50.84 51.07
40.28 40.54 39.66 38.25 37.39 37.23 36.72 37.34 37.75 37.19 37.32 38.05 38.30 38.48 38.79 38.36 38.20 38.30 38.76 37.81 38.77 39.35 39.79 40.02 40.39 41.15 41.59 42.23 42.70 42.81 42.74 42.98 43.29 41.87 41.97 42.74 43.33 43.07 44.46 45.54 52.42 51.73 52.23
39.39 38.91 38.04 37.56 37.48 37.39 37.68 38.73 38.65 37.88 37.31 36.67 37.09 37.61 38.19 39.12 38.59 38.82 38.41 38.86 39.84 40.33 40.59 40.32 40.52 41.33 42.32 42.27 42.41 42.32 42.42 42.50 42.91 42.23 42.11 42.51 42.51 42.99 43.71 45.01 49.76 52.40 51.59
38.24 37.39 37.37 37.60 38.43 39.37 38.07 37.12 36.66 36.57 36.53 36.98 36.71 36.16 36.43 36.62 37.22 38.45 38.56 39.44 39.85 39.91 40.87 41.36 41.68 41.94 42.82 43.04 43.38 43.21 42.78 42.74 43.43 43.10 41.95 41.48 41.65 42.40 42.86 43.81 46.37 52.38 51.41
38.30 38.26 37.72 37.55 37.22 36.37 35.99 35.69 35.96 35.89 36.01 36.09 36.28 35.90 35.65 36.47 37.23 38.13 39.05 39.34 39.58 39.92 40.31 40.64 41.06 41.43 42.17 42.80 42.97 43.39 43.98 44.33 43.89 42.25 42.09 41.17 40.93 41.91 42.74 43.43 45.21 52.59 51.70
38.10 37.16 36.75 36.86 35.72 35.12 35.22 35.10 35.46 35.68 35.43 35.65 35.31 34.85 35.13 35.95 36.71 37.54 38.40 39.29 39.34 39.03 40.30 41.11 41.56 41.69 42.10 42.34 42.34 42.78 42.32 39.77 40.58 40.53 41.73 41.76 41.13 41.33 42.10 43.49 45.84 52.88 51.93
36.75 36.13 36.06 36.10 35.64 35.31 35.01 34.91 35.11 35.48 35.77 35.96 36.09 35.87 36.11 36.81 36.58 36.56 37.67 38.12 38.49 38.74 39.30 40.82 41.46 41.97 42.20 42.47 42.59 40.85 39.69 39.94 41.04 40.60 40.86 41.51 41.70 43.02 45.35 45.45 46.39 52.27 51.60

GFSGL_sfc_wetblb_021.txt.gz
Wetbulb
54.85 53.92 53.14 53.95 54.78 54.94 56.20 57.03 56.84 56.33 55.11 53.64 52.78 52.22 51.69 51.03 50.83 49.99 49.20 49.18 48.86 48.93 49.39 48.40 47.57 48.16 47.76 47.62 47.74 47.24 46.72 46.59 43.63 46.29 48.03 48.98 48.16 48.07 48.91 50.03 50.88 50.23 50.38
54.05 54.14 52.62 52.89 53.33 53.42 54.31 55.64 56.51 55.45 54.87 53.37 52.39 51.48 50.94 50.51 50.32 49.29 48.59 48.40 47.99 47.90 47.93 47.70 46.75 46.74 47.28 47.51 47.17 46.96 47.12 47.54 45.84 43.60 46.34 46.84 47.09 48.04 48.74 48.41 47.97 49.42 50.15
52.39 53.10 52.46 51.82 51.73 52.11 52.93 54.74 55.27 54.83 53.98 52.85 52.08 50.90 50.28 49.94 49.56 49.14 48.76 48.12 47.88 47.58 47.51 46.89 46.74 46.58 45.39 46.41 47.24 46.99 47.59 47.10 46.76 45.35 44.45 46.69 47.04 48.00 47.28 47.78 47.50 48.60 49.96
51.57 51.66 52.38 50.90 51.19 51.76 52.59 53.57 54.09 54.22 53.13 52.07 51.56 50.73 50.24 49.87 49.39 48.91 48.55 48.01 47.49 47.05 46.76 47.27 46.24 45.68 45.69 46.58 46.63 46.77 46.18 46.12 45.82 44.70 44.41 44.00 45.63 46.73 46.99 45.82 46.28 48.50 47.31
50.72 51.19 51.17 51.60 50.75 50.95 51.56 52.30 53.17 53.43 52.79 51.96 50.90 50.29 50.06 49.53 48.87 48.78 48.56 47.96 47.18 46.47 46.92 46.32 47.00 47.49 48.52 48.26 46.78 45.93 46.04 44.61 44.40 43.13 43.28 43.44 43.65 44.23 44.22 45.57 44.86 45.14 45.90
49.83 50.03 50.29 50.32 49.84 49.99 50.98 50.74 52.12 52.76 52.30 51.43 50.32 49.50 48.97 48.36 51.26 51.42 49.23 47.59 47.12 46.49 46.16 46.03 46.51 48.58 48.24 48.92 48.39 48.22 47.10 44.86 43.50 42.20 41.67 41.47 42.88 44.54 44.51 43.94 43.78 43.22 42.07
49.56 49.99 49.51 48.70 48.95 49.12 49.74 50.18 51.01 52.03 51.80 50.72 50.01 49.32 48.63 48.61 52.29 51.90 50.94 47.77 47.14 46.43 45.97 46.81 46.56 46.75 47.20 45.90 46.99 47.81 47.59 48.10 48.24 45.86 43.51 43.67 44.26 45.77 45.14 44.43 44.62 44.44 44.24
48.81 48.99 48.91 48.10 47.41 48.29 48.77 48.76 50.04 51.46 50.84 50.35 49.46 49.18 48.69 48.51 51.52 50.96 49.73 47.57 47.15 47.19 47.22 47.25 46.77 46.21 46.42 45.81 45.08 44.77 45.70 46.77 47.36 47.37 46.86 46.98 47.65 47.62 47.92 47.73 47.08 46.49 47.20
48.62 48.13 47.89 47.06 45.38 46.06 47.14 48.26 49.02 50.38 50.28 49.62 49.45 48.82 48.05 48.08 50.73 50.47 48.74 46.09 46.10 46.83 47.03 46.87 46.77 45.83 46.75 46.37 44.93 44.73 45.34 46.05 48.81 50.60 49.36 50.51 50.91 50.66 49.94 47.68 45.52 45.14 47.02
48.18 47.37 47.20 46.78 44.80 44.55 46.71 48.66 49.05 49.74 49.60 49.14 48.35 48.43 49.03 47.28 50.15 50.71 49.30 46.54 45.22 45.52 46.18 46.30 48.07 46.02 46.33 46.12 44.82 44.78 43.96 43.92 45.04 45.55 46.72 47.79 48.01 47.83 49.26 47.47 47.22 48.57 48.83
47.60 47.19 45.82 44.71 43.94 44.37 46.42 48.37 49.06 49.38 49.10 48.05 47.51 47.56 47.29 47.84 48.18 50.48 49.79 45.93 45.25 44.74 44.54 44.87 46.30 47.28 46.13 46.02 46.94 45.80 44.58 45.32 45.43 45.69 45.73 45.43 45.90 46.01 46.38 47.86 49.66 52.40 49.31
46.20 45.68 45.02 44.15 43.80 44.49 46.14 47.17 48.63 48.56 48.02 46.94 46.39 45.84 46.25 46.70 48.67 49.26 48.76 48.06 47.69 44.51 44.21 45.49 47.04 46.13 45.54 46.68 47.25 46.86 46.29 45.94 45.80 44.57 44.03 43.64 43.89 44.38 45.63 47.81 50.92 53.88 55.84
44.50 44.66 43.49 43.83 45.49 46.02 45.31 45.29 46.26 47.76 46.87 45.89 44.67 43.83 43.60 45.33 46.73 48.00 48.08 47.73 46.75 44.66 45.28 46.45 45.73 45.86 46.32 46.43 47.05 46.13 45.90 45.39 44.39 43.18 42.99 42.77 44.11 45.26 46.82 48.91 52.07 55.53 56.97
43.28 43.47 42.85 44.68 46.98 45.73 45.91 45.52 46.04 46.69 46.03 45.18 43.81 42.70 43.29 44.05 44.13 45.26 45.55 45.79 46.04 45.54 45.50 45.16 45.37 45.52 45.84 45.77 45.77 45.56 45.20 45.18 44.30 43.15 43.24 43.42 44.97 45.25 45.85 48.27 49.88 55.68 55.08
42.21 42.20 42.91 45.17 44.95 43.52 44.14 44.31 46.19 47.46 47.17 44.63 43.62 43.40 42.40 42.14 43.38 45.35 45.08 44.31 45.07 45.23 45.09 45.07 44.30 44.31 43.36 43.92 44.29 44.38 44.89 44.84 43.95 44.47 43.65 42.81 43.62 44.51 45.09 47.63 49.67 54.53 54.16
40.54 39.93 41.90 42.20 42.86 43.25 42.88 43.82 47.47 48.03 47.80 47.20 47.41 45.93 45.00 46.91 47.40 46.71 45.35 45.40 45.26 44.59 43.25 42.20 41.82 42.37 41.48 42.39 42.25 42.61 43.56 43.65 43.42 43.77 44.17 42.79 42.95 43.57 44.35 46.26 48.70 53.17 53.84
39.80 39.40 40.98 41.20 41.94 42.27 43.21 42.05 41.09 44.55 46.76 47.00 47.04 46.43 45.62 45.31 45.36 45.12 44.59 44.84 44.56 43.69 41.39 41.43 41.69 41.92 42.12 42.16 42.20 42.12 41.79 43.33 42.88 43.56 43.62 42.45 43.10 43.58 44.05 44.95 46.77 52.67 51.89
40.36 40.77 39.89 39.73 40.20 42.36 43.72 42.03 41.41 40.23 40.11 41.07 44.34 43.97 44.93 44.71 44.64 45.10 45.05 44.01 41.58 41.97 41.73 41.84 41.47 41.65 42.04 41.68 41.80 42.00 42.10 42.69 41.51 43.52 43.84 42.36 42.73 43.07 43.21 43.84 45.30 46.97 51.09
40.17 39.22 38.59 39.70 42.98 43.09 42.54 42.50 42.01 41.52 40.86 40.72 42.01 43.03 43.79 43.99 44.06 44.03 42.95 40.91 40.83 41.42 41.77 41.35 41.69 41.65 42.02 42.31 42.38 43.12 43.05 42.73 43.71 43.69 43.82 42.32 42.39 42.82 42.65 43.46 44.18 45.54 50.75
40.46 40.04 40.11 40.89 41.78 42.45 42.44 41.44 40.71 40.81 40.70 40.61 40.57 40.99 42.13 42.21 40.24 40.04 40.61 41.03 41.21 41.23 41.27 40.64 41.79 42.55 42.53 42.98 43.27 43.79 44.13 42.75 43.47 43.93 43.97 42.82 42.52 42.89 42.44 42.72 43.44 44.23 48.52
41.28 40.24 40.12 39.66 39.63 40.00 40.25 39.91 40.26 39.76 39.50 39.96 40.16 41.41 41.93 40.49 39.71 40.11 40.32 40.55 40.65 40.80 41.14 41.16 41.91 41.76 42.98 43.12 43.35 43.52 43.39 43.45 43.69 43.77 43.90 43.18 42.54 41.84 42.53 42.94 43.25 43.98 45.14
41.29 40.79 40.33 39.56 39.87 39.66 39.98 40.65 40.46 39.93 39.62 39.25 40.06 40.48 41.14 40.50 40.23 40.07 40.38 40.65 40.85 41.38 41.99 41.73 41.44 41.76 42.59 42.11 42.75 43.05 42.95 42.94 43.34 43.04 43.59 43.15 42.17 41.94 42.12 42.31 42.29 42.85 44.65
39.98 39.91 39.70 39.75 40.17 40.41 40.05 39.97 39.73 39.66 39.53 39.77 39.63 38.98 39.21 39.39 39.85 39.62 40.00 40.65 40.73 41.04 41.32 41.81 41.51 41.24 42.11 42.80 43.87 44.81 43.73 43.14 43.88 43.29 43.31 42.25 41.45 41.26 41.45 41.48 42.02 42.08 43.60
39.96 39.90 39.89 39.98 40.10 39.61 39.35 38.97 39.23 39.27 39.12 38.81 38.87 38.77 38.52 38.90 38.89 39.18 39.59 40.32 40.85 40.88 41.36 41.79 42.09 41.52 41.65 42.98 44.44 45.22 45.37 45.10 45.12 44.43 43.35 42.17 41.12 41.08 41.09 41.41 41.84 42.02 43.00
39.71 39.88 39.81 39.93 39.71 38.92 38.39 38.25 37.92 37.81 38.01 37.52 37.55 37.76 37.82 38.14 38.02 39.01 40.04 40.49 40.64 40.72 40.58 41.41 40.92 41.31 41.64 42.71 43.77 44.00 40.90 39.06 40.92 40.51 42.68 42.45 41.27 40.84 40.79 41.54 42.09 42.69 43.18
39.62 38.87 38.56 38.64 37.93 38.23 37.87 37.32 36.58 36.94 36.82 36.74 36.86 37.03 37.40 37.35 37.87 38.39 38.51 38.55 39.56 40.44 40.17 40.07 41.38 41.97 41.56 42.52 42.23 39.62 39.33 39.53 40.89 40.74 41.32 41.68 40.89 40.65 41.23 41.58 42.06 42.93 44.18

GFSGL_sfc_wetblb_024.txt.gz
Wetbulb
48.03 50.87 50.96 51.36 51.50 50.74 50.89 51.93 54.32 54.57 53.30 50.88 50.41 49.62 48.68 48.12 48.06 46.81 45.83 44.72 43.93 43.32 43.41 43.25 43.01 42.94 41.64 41.53 41.20 40.68 39.78 39.60 37.89 39.91 42.32 43.32 42.47 42.51 43.96 44.27 46.37 44.89 46.39
47.43 48.59 49.81 50.99 51.78 50.57 49.40 49.59 50.27 52.95 54.09 52.16 50.40 49.52 48.89 48.19 47.80 46.62 45.45 45.93 44.10 43.04 43.18 42.68 42.41 44.94 41.14 41.40 40.87 40.18 40.39 41.18 40.26 39.27 40.02 40.96 41.56 42.33 42.45 43.43 46.06 47.45 46.05
46.61 46.59 48.58 49.99 50.83 50.26 49.47 49.39 50.31 51.85 53.81 52.37 50.18 48.95 48.51 47.88 47.12 46.62 45.86 44.93 43.54 43.01 42.90 42.45 42.16 41.92 40.33 40.00 40.30 40.50 41.32 44.10 41.16 39.73 40.30 40.51 41.11 41.97 42.70 42.91 43.81 44.83 46.26
47.67 47.20 46.55 49.06 49.64 49.65 49.74 48.95 49.74 51.35 53.03 51.40 49.72 49.10 48.48 47.78 47.19 46.50 45.68 43.56 43.37 43.03 43.60 42.79 42.32 41.88 40.24 39.63 40.95 40.71 41.66 40.14 40.13 39.39 39.80 39.88 40.78 41.73 42.56 42.06 42.29 44.70 45.42
46.04 47.19 47.22 48.13 49.31 48.98 48.53 48.81 49.00 50.18 51.37 51.44 49.34 48.49 47.93 47.30 47.20 45.70 45.11 43.92 41.53 41.35 42.06 42.82 42.85 44.23 47.78 45.55 43.78 41.47 41.03 40.10 39.35 38.84 39.44 39.68 40.62 39.71 39.59 41.52 41.87 43.96 45.05
45.18 45.11 47.55 47.72 48.48 47.91 48.09 47.95 48.03 48.55 49.45 49.91 48.66 47.82 46.78 47.78 51.39 51.44 46.90 43.34 42.43 41.49 40.72 41.23 41.85 48.59 46.81 49.16 49.38 49.38 46.30 39.90 38.93 38.98 41.31 40.46 40.81 40.87 42.08 42.86 43.64 42.97 41.12
44.71 45.02 46.69 48.30 47.53 47.11 47.83 47.60 47.27 47.18 48.40 48.49 48.18 47.09 46.03 45.93 53.06 53.18 51.15 43.07 41.63 40.57 40.77 41.12 42.28 44.93 47.55 42.89 46.16 47.63 47.10 47.97 47.54 43.34 42.10 40.79 40.71 41.26 42.87 43.13 43.81 44.20 44.59
44.31 44.47 46.16 47.03 46.12 46.63 46.12 46.18 46.43 46.93 47.31 48.08 47.62 46.11 45.42 45.19 53.45 53.33 51.86 42.07 41.17 41.17 41.09 41.23 41.39 41.34 42.65 43.08 41.40 40.68 41.31 42.03 43.24 44.57 43.00 42.51 43.31 45.03 46.43 46.86 46.08 45.87 46.63
43.54 44.50 46.25 45.79 44.77 45.40 44.61 45.01 46.03 46.54 46.96 47.83 46.82 45.25 44.60 44.19 52.88 52.77 48.43 41.67 41.23 41.20 42.66 42.52 42.06 41.32 46.08 46.70 41.84 40.61 40.53 41.96 47.45 48.31 48.27 48.42 49.36 49.94 49.98 46.97 45.02 43.87 42.78
43.58 45.22 45.82 45.39 44.32 43.86 43.55 43.02 45.54 46.96 47.04 47.85 45.96 45.85 47.65 45.49 52.20 52.07 46.78 41.80 39.74 41.14 41.61 42.22 49.05 43.22 46.99 46.75 41.08 40.14 39.47 40.54 40.41 41.73 42.49 44.65 46.99 46.81 48.96 46.95 45.92 43.73 43.92
44.20 44.94 44.48 43.98 43.28 44.10 43.46 42.26 45.86 46.70 46.77 46.60 45.14 45.44 45.82 46.43 48.48 51.41 49.24 42.74 41.78 40.91 40.77 40.72 42.40 48.59 47.45 46.79 46.32 41.82 42.39 43.62 42.57 41.45 41.82 42.83 44.55 45.25 45.84 46.54 46.95 46.72 46.39
43.07 44.20 43.51 43.14 43.67 44.37 41.77 41.43 45.44 46.19 45.97 45.81 44.16 43.36 44.67 45.72 49.58 51.28 50.75 47.53 46.94 40.72 40.09 40.96 44.13 48.72 47.12 46.48 45.77 46.90 47.19 45.92 41.30 40.18 40.37 42.65 43.35 43.44 44.73 45.89 47.28 49.36 51.07
40.94 41.41 42.35 42.71 42.96 42.71 41.40 40.68 43.51 45.46 45.31 45.11 43.38 42.32 42.22 44.17 46.75 51.26 51.25 50.24 48.01 41.77 42.47 45.67 47.13 46.92 46.46 45.08 46.58 46.59 46.19 40.97 39.97 38.79 40.29 41.95 42.89 44.25 45.50 46.59 48.27 50.47 53.91
39.66 40.30 42.47 42.03 41.49 41.48 44.50 43.19 44.46 44.74 44.86 44.80 42.54 41.35 41.74 42.95 44.63 46.16 46.13 45.59 46.99 44.37 45.51 42.85 43.97 44.64 45.45 44.51 44.16 44.09 41.69 40.43 39.74 38.99 42.10 42.39 43.33 44.13 44.31 46.10 46.45 48.93 53.60
39.29 40.99 41.18 40.53 39.04 42.13 43.35 44.38 45.06 46.01 46.17 44.66 42.80 42.36 40.75 41.40 43.55 45.93 44.53 42.72 42.08 44.18 42.78 41.11 40.64 40.63 40.16 40.39 40.00 39.92 40.18 39.80 39.31 39.16 42.55 41.38 41.72 43.31 43.83 45.87 46.97 50.62 51.67
39.51 40.61 40.17 38.95 38.57 41.61 42.18 43.00 47.65 47.06 47.83 48.15 47.04 44.65 43.94 45.88 48.02 47.78 47.17 46.73 46.87 47.24 41.77 38.88 38.44 38.68 38.68 38.46 37.70 37.69 38.52 39.78 38.64 39.54 43.27 41.01 41.32 42.52 43.33 44.78 46.60 49.92 51.03
40.40 40.51 39.71 39.35 39.73 40.09 41.33 42.27 42.01 44.41 47.62 47.51 47.67 47.28 46.58 46.52 47.59 47.48 47.21 46.57 46.11 44.41 38.57 38.01 37.95 38.80 38.41 37.68 37.31 36.95 37.03 38.23 38.89 40.83 43.41 40.79 41.93 42.75 43.06 43.65 44.87 46.29 51.28
41.44 41.77 39.93 40.12 39.89 40.02 42.13 42.21 42.28 41.86 40.95 42.18 46.51 46.39 47.19 46.85 46.38 46.07 45.97 44.46 41.05 40.92 38.95 38.55 38.41 38.22 37.53 37.25 37.08 37.56 37.44 38.20 39.38 42.20 43.24 41.83 41.82 42.34 42.29 42.57 43.47 44.43 49.12
40.52 39.92 39.26 39.38 39.03 40.80 42.51 41.50 40.76 39.85 39.52 40.02 41.43 43.79 45.35 46.06 45.85 45.73 44.83 40.32 38.50 38.49 38.54 37.92 38.09 38.33 37.73 37.62 37.90 38.24 39.03 41.21 41.60 42.16 42.89 42.38 41.99 42.22 41.83 42.36 43.15 44.19 46.56
40.18 39.49 38.02 38.05 41.04 41.18 40.45 39.43 39.50 39.74 39.57 39.50 39.56 39.97 41.74 41.95 39.80 39.43 39.33 38.53 38.09 38.85 38.46 37.81 38.69 39.98 38.58 38.19 38.19 38.63 39.32 41.55 40.14 40.56 42.76 42.09 42.31 42.22 41.72 41.87 42.54 42.70 44.40
38.79 38.78 39.51 40.59 40.67 40.63 40.01 39.42 39.40 39.12 39.21 39.13 39.52 40.88 42.18 38.87 38.59 38.40 37.81 37.90 37.64 37.73 37.71 38.69 39.66 39.68 39.24 38.41 38.55 38.90 39.44 39.68 39.95 39.65 41.90 40.85 41.46 41.07 42.02 42.17 42.34 42.83 43.60
38.72 38.43 38.88 38.83 39.74 39.72 39.42 39.71 39.35 39.03 38.92 38.73 39.09 40.85 42.46 39.30 38.05 37.86 37.47 37.89 38.43 39.15 39.32 39.62 39.61 39.50 39.03 40.05 40.55 39.17 39.07 40.01 39.94 39.24 41.87 41.75 40.68 41.32 41.59 41.50 41.71 42.34 42.87
38.80 38.19 38.47 39.25 39.75 40.03 38.92 38.76 38.67 38.80 38.84 38.74 38.68 38.50 38.22 37.71 37.36 37.00 38.23 38.48 38.93 38.48 39.19 40.07 39.55 39.23 40.16 40.93 41.76 40.54 39.84 39.61 40.16 40.34 42.01 41.07 40.65 40.47 41.16 40.90 41.11 41.45 42.05
39.35 38.40 37.56 37.71 38.28 38.23 38.33 38.50 39.10 39.18 38.51 38.38 38.03 37.46 36.68 36.97 37.13 37.85 38.66 39.26 39.34 39.50 39.81 40.01 39.77 38.20 40.01 39.64 40.41 41.67 40.57 40.02 40.94 41.06 41.20 41.64 41.10 41.10 40.84 40.76 41.07 41.59 42.16
39.31 39.15 39.05 38.36 38.02 37.62 37.49 37.34 37.12 37.12 36.69 36.76 36.43 36.29 36.20 36.97 37.61 38.89 39.33 39.44 39.49 39.42 39.34 39.54 39.34 39.31 40.97 41.70 41.69 40.76 39.16 38.76 38.74 39.52 39.97 42.00 40.97 40.75 40.56 40.77 41.23 41.80 42.19
38.15 37.63 37.20 37.28 36.66 36.46 35.97 35.49 35.49 35.80 35.83 36.18 36.32 36.27 36.67 36.76 37.49 37.83 37.96 38.04 36.81 38.05 38.45 39.07 39.14 40.12 41.09 40.76 39.88 39.00 39.42 39.69 39.80 40.42 40.96 41.14 40.52 40.37 40.72 40.56 41.02 41.51 41.88

GFSGL_sfc_wetblb_030.txt.gz
Wetbulb
41.79 41.80 41.98 44.08 44.66 44.11 44.96 46.38 47.26 46.77 46.66 47.55 48.40 48.57 50.07 50.52 49.39 49.53 49.04 47.69 45.28 44.87 45.14 43.16 41.73 40.50 40.71 39.32 38.83 37.88 37.23 36.56 34.83 35.91 37.51 39.02 39.29 40.32 42.05 41.68 43.11 41.70 42.19
41.34 41.58 42.07 43.79 44.26 42.64 44.09 45.70 47.18 46.11 46.62 47.17 47.83 48.68 50.20 50.99 50.22 48.92 48.24 47.81 44.96 44.31 43.50 43.09 42.15 42.86 39.57 39.30 38.88 37.88 37.51 37.07 36.69 34.87 36.41 38.31 38.95 39.54 40.00 39.81 42.56 44.43 42.08
41.01 41.21 41.41 41.81 41.92 42.90 43.70 45.75 46.93 46.35 45.93 46.12 46.74 47.33 48.52 49.49 48.95 49.07 48.89 47.61 45.26 45.09 44.21 43.56 42.92 41.97 39.49 38.28 37.99 37.70 37.38 40.01 36.90 36.38 36.34 38.19 38.59 38.96 39.11 39.22 39.57 40.53 43.22
41.10 41.63 40.44 41.50 42.08 42.66 43.99 44.73 45.92 46.67 45.37 45.34 45.84 46.92 48.00 49.04 49.39 49.66 48.79 47.90 46.15 45.38 44.45 44.26 42.99 42.45 41.44 39.03 38.86 37.95 38.00 37.40 37.39 37.39 37.30 37.59 38.03 38.91 38.33 38.20 38.71 39.07 40.09
40.57 40.40 41.21 40.92 42.25 42.21 42.48 44.57 45.02 45.95 46.92 47.28 46.09 46.88 47.44 48.59 49.58 49.52 48.96 47.71 45.59 44.53 43.03 43.36 42.98 44.53 47.86 43.98 40.69 37.33 37.54 37.05 37.53 37.39 37.07 37.14 37.05 37.21 36.72 37.75 37.01 39.31 40.76
40.05 40.42 40.93 41.65 41.45 40.65 42.16 42.28 45.04 47.03 46.39 46.39 45.85 45.96 46.44 48.38 50.85 52.45 50.70 46.95 45.08 43.39 41.69 41.99 43.00 48.57 49.21 50.82 49.66 47.49 42.72 38.68 37.81 37.66 37.55 36.94 37.03 37.98 38.06 37.50 38.84 37.97 37.51
39.89 40.44 41.02 40.99 40.48 41.14 41.75 44.49 44.28 44.01 43.27 43.65 44.75 45.52 45.61 46.61 50.41 52.04 53.57 46.87 44.54 43.53 42.72 41.56 41.87 45.63 47.64 44.57 50.09 50.03 49.32 49.88 47.74 39.97 37.65 37.14 37.08 38.22 38.15 38.28 39.08 39.21 39.56
39.81 40.02 40.36 40.04 40.48 40.49 40.96 41.64 40.47 41.08 41.61 42.22 43.45 44.75 44.27 45.74 49.48 51.58 53.50 47.14 44.60 43.25 42.21 41.37 42.14 41.19 43.51 41.85 40.26 40.17 39.87 40.22 41.32 42.46 39.85 39.64 39.73 39.96 39.35 41.29 41.68 43.19 44.93
39.40 39.10 39.76 40.31 38.83 39.35 39.17 40.13 40.66 41.13 41.47 41.80 43.29 44.51 43.19 43.61 48.39 50.76 52.23 46.62 43.21 41.44 40.82 41.07 40.98 40.35 47.15 48.44 39.53 38.47 37.94 39.18 45.17 47.82 48.01 48.59 48.55 48.10 47.33 44.27 42.43 42.09 41.69
39.47 38.96 40.14 39.79 38.59 38.26 39.04 39.34 40.58 41.14 41.60 42.63 42.95 44.18 44.50 43.70 48.76 50.79 51.50 44.38 40.99 40.04 39.36 40.31 45.88 41.62 49.32 49.24 38.77 38.02 37.17 37.97 38.94 40.32 41.13 41.47 43.32 42.31 46.76 44.22 43.35 42.07 42.09
40.20 39.90 39.81 40.23 38.36 38.71 37.70 39.18 39.85 40.07 41.07 41.49 41.77 43.04 43.31 45.25 47.15 50.01 52.14 43.89 41.61 39.60 39.40 40.49 42.69 48.47 50.87 49.53 44.67 38.89 39.34 40.41 42.41 40.32 38.14 38.46 39.45 40.13 41.48 43.53 44.75 43.87 42.22
39.00 38.84 38.52 37.71 37.93 39.62 37.71 38.13 39.21 39.92 40.56 40.12 40.14 41.91 43.73 46.12 48.09 49.07 49.84 46.82 45.29 40.76 39.95 41.82 43.96 49.80 50.42 49.37 45.90 45.98 46.85 45.65 39.26 37.22 36.96 37.10 37.52 39.70 42.03 43.46 44.51 46.33 47.53
37.45 36.90 37.06 36.77 36.98 37.05 36.25 36.90 38.47 40.39 39.09 39.02 41.20 41.57 42.64 45.99 46.00 51.56 50.42 48.75 48.22 41.77 41.80 44.05 48.13 50.26 49.83 47.47 47.38 46.86 45.60 39.28 36.98 36.13 35.37 35.65 38.65 41.50 42.31 44.52 46.58 47.91 49.82
36.20 36.10 35.17 34.46 35.74 36.61 38.42 39.46 39.64 39.44 38.31 40.00 42.35 41.74 43.44 43.94 46.88 49.00 48.43 46.88 48.02 44.22 46.67 45.46 47.38 46.72 45.61 44.09 43.18 42.19 40.00 38.27 37.69 35.49 35.11 36.61 40.23 40.79 42.75 45.11 44.88 46.63 50.46
36.25 35.29 34.90 35.30 35.08 36.50 37.51 39.26 40.58 40.24 40.36 40.35 43.30 43.15 42.52 43.81 47.11 47.39 45.71 43.39 42.81 45.22 44.95 43.23 41.47 39.88 39.25 38.23 38.60 38.15 37.69 37.53 35.88 35.30 35.56 38.75 39.34 40.97 43.00 44.97 45.35 46.65 49.02
36.63 35.73 35.76 36.05 36.98 36.11 36.97 39.73 42.36 42.94 43.88 44.63 46.56 45.21 45.42 48.01 48.98 48.56 48.12 47.10 47.46 46.89 42.23 39.72 38.37 37.83 36.69 36.35 35.87 35.55 36.09 36.86 35.38 35.59 39.71 38.68 38.84 40.90 42.59 43.89 45.01 45.75 49.14
36.29 36.07 36.41 36.99 35.81 36.72 38.30 38.71 37.38 39.97 42.77 47.02 47.32 46.69 46.98 48.04 48.41 47.42 47.57 47.47 47.05 44.72 39.52 38.68 38.14 37.23 36.52 35.91 35.29 35.27 34.56 35.20 35.93 37.53 41.31 38.10 39.56 41.72 42.13 42.68 43.59 45.00 49.92
36.92 39.22 37.55 37.31 37.38 38.10 39.47 38.63 38.88 38.36 38.54 44.01 46.72 45.89 46.97 48.89 47.32 47.03 46.90 45.57 40.97 41.11 39.71 39.27 37.67 36.58 36.13 35.22 35.63 35.29 34.96 36.59 37.53 39.08 40.79 38.13 39.09 41.19 41.38 41.77 42.57 43.45 47.24
38.31 37.87 38.06 37.90 38.61 39.13 39.09 38.45 38.48 38.85 42.36 42.08 43.26 45.46 47.72 48.19 47.38 47.38 45.97 40.62 39.10 38.96 39.37 38.42 37.31 37.12 36.15 36.19 36.17 36.41 37.02 37.70 38.06 38.49 39.39 37.45 38.68 40.74 40.75 41.61 42.26 43.79 45.36
38.10 39.59 39.78 38.79 38.67 38.10 37.79 37.74 39.25 41.67 41.63 41.67 42.61 43.81 44.95 44.84 41.35 39.38 39.84 39.82 39.58 39.37 39.08 36.99 37.25 37.49 37.20 36.78 36.73 36.71 36.79 37.25 37.25 37.39 37.15 37.02 38.15 40.28 40.34 40.98 41.60 41.96 43.08
37.39 38.24 41.11 40.63 40.21 39.83 40.58 40.74 41.41 41.32 41.05 41.35 42.22 43.32 44.16 39.48 38.62 38.80 39.04 39.18 39.50 39.04 38.07 37.11 37.15 37.86 37.83 37.14 37.01 36.96 37.09 37.27 36.58 36.50 37.00 36.82 37.46 38.89 40.37 41.11 41.50 42.47 43.33
36.42 39.25 39.30 39.44 39.85 39.71 39.61 40.13 39.99 39.98 39.77 39.18 39.51 40.36 41.31 38.68 38.50 38.30 38.77 39.48 39.39 39.10 38.54 37.67 37.69 37.83 37.40 37.73 37.99 37.19 37.09 37.21 36.94 37.29 36.96 36.68 36.77 38.28 39.40 40.39 40.87 41.74 42.66
36.40 37.20 39.07 38.96 39.14 39.29 38.38 39.01 39.09 39.08 38.63 38.52 38.33 37.81 37.87 37.80 37.67 37.55 38.03 38.54 38.53 37.92 37.44 37.66 37.61 36.98 37.47 38.63 39.12 38.80 37.80 37.34 38.13 37.65 36.84 36.50 36.55 37.92 38.64 39.73 40.42 40.77 41.50
37.23 36.74 36.83 38.27 38.78 38.04 38.11 38.38 38.82 38.52 38.01 37.96 37.90 37.69 37.45 37.60 37.47 37.46 37.55 37.80 37.53 37.28 36.94 37.31 37.65 37.92 39.23 39.39 40.12 40.15 41.46 40.94 38.51 37.76 37.36 36.89 35.99 37.54 38.92 39.97 40.39 40.72 41.19
36.98 36.35 36.20 36.23 36.43 36.47 37.03 37.65 37.84 37.69 37.55 37.69 37.27 37.33 37.57 37.76 37.59 37.73 37.76 36.82 37.11 37.44 37.46 37.88 39.41 40.97 40.98 39.88 40.70 39.97 39.68 38.95 38.15 39.01 37.67 37.71 39.32 38.96 40.01 40.24 40.56 40.93 41.11
36.60 36.18 35.74 35.97 35.91 36.09 36.07 36.16 36.43 36.88 36.77 36.75 36.60 37.31 37.36 37.00 37.36 37.71 37.30 36.92 37.24 38.05 38.59 39.20 40.25 40.35 40.51 40.34 39.72 39.30 39.51 39.51 39.11 40.34 38.83 39.52 39.87 39.83 39.98 40.04 40.37 40.29 40.53

GFSGL_sfc_wetblb_033.txt.gz
Wetbulb
40.31 39.80 39.65 40.41 41.70 40.95 41.70 42.71 43.22 43.55 45.44 45.49 45.74 45.76 45.68 46.22 47.60 47.90 48.14 48.82 48.76 47.77 47.14 45.44 43.59 42.50 42.07 40.90 38.89 37.61 36.93 36.56 35.26 35.17 35.82 37.00 37.17 38.48 40.83 41.73 43.02 41.68 41.95
40.47 39.63 40.25 41.29 41.71 40.29 41.28 41.77 42.66 42.79 45.57 45.78 45.71 45.71 45.70 46.27 46.24 47.00 47.07 48.18 48.29 47.03 46.59 45.42 44.33 42.49 41.79 40.90 40.16 38.35 38.21 36.38 36.11 34.33 35.35 36.63 37.50 38.56 39.14 39.46 41.88 43.99 41.57
40.22 38.96 39.23 38.80 38.79 39.49 40.33 41.83 42.13 43.21 44.49 45.17 45.80 45.07 45.47 46.04 45.73 46.25 47.27 47.51 48.18 47.83 47.55 45.50 45.05 42.00 40.77 39.91 39.85 38.59 37.43 39.46 36.10 35.50 35.10 36.55 37.50 38.10 38.52 38.82 39.05 39.12 41.87
40.44 38.80 37.74 37.80 38.55 39.43 40.19 41.06 41.71 42.87 43.32 44.32 44.69 45.27 45.78 45.87 46.36 46.52 46.49 47.08 47.83 47.75 47.87 47.17 45.98 42.55 41.98 40.06 40.04 39.24 37.79 37.21 35.61 35.33 35.36 36.23 37.19 38.19 37.61 37.21 37.74 38.75 39.72
39.34 38.56 38.66 39.39 39.46 38.98 39.44 40.50 41.35 41.74 42.43 44.10 45.08 45.01 45.39 46.04 46.75 45.91 45.88 46.30 47.36 47.39 48.41 47.50 45.46 45.73 48.71 44.66 41.57 38.75 37.43 36.36 35.51 35.62 35.67 36.21 36.36 36.39 36.36 37.53 36.85 38.78 39.36
39.14 38.32 38.87 39.69 39.91 39.47 39.58 39.61 39.69 40.57 44.02 44.83 44.01 44.11 43.75 45.14 48.06 49.27 49.00 46.16 48.07 48.12 46.46 45.88 45.13 48.43 49.27 50.33 49.48 46.88 42.17 37.60 35.87 36.17 36.12 36.30 36.28 36.93 37.35 37.28 37.88 35.71 36.11
40.28 39.00 40.13 40.10 39.67 39.74 39.66 39.47 39.80 40.83 40.80 41.85 41.51 41.79 41.70 42.62 47.75 49.22 49.55 46.32 46.83 48.87 47.37 45.34 43.96 45.80 48.25 46.86 50.68 50.14 48.54 48.21 44.45 39.34 37.29 37.25 36.87 37.45 37.54 36.97 37.08 37.46 38.02
39.65 40.02 39.87 39.87 39.56 39.32 38.66 38.59 38.02 38.10 38.96 40.09 40.76 41.02 41.24 42.72 47.32 48.56 48.95 46.30 47.12 49.16 46.52 44.75 43.41 44.21 45.42 45.13 45.01 42.80 42.32 43.90 44.86 45.72 40.01 39.52 38.71 39.45 39.03 40.52 40.45 40.45 41.82
38.41 38.81 39.35 39.87 39.03 38.14 37.53 37.37 36.95 37.61 38.72 39.60 40.57 40.42 40.70 41.71 46.43 47.54 47.56 45.37 47.47 46.86 44.56 43.94 43.58 43.39 48.17 49.76 42.24 39.95 38.50 38.85 46.28 47.56 46.91 47.42 48.49 49.10 47.75 42.88 40.60 39.26 38.44
37.05 37.91 39.07 39.21 38.21 38.37 38.28 36.70 37.33 37.40 38.97 39.73 39.32 40.25 43.05 42.15 45.58 47.43 46.81 45.47 46.29 44.51 43.53 43.29 46.94 44.49 50.94 49.99 40.38 38.45 36.48 36.78 38.32 39.04 39.91 42.35 44.37 41.25 46.22 42.78 40.88 38.47 39.98
37.87 38.06 38.60 39.49 38.82 38.73 39.07 37.00 35.42 36.27 36.98 36.75 38.39 40.14 41.55 42.60 42.73 46.25 46.98 46.74 44.65 42.24 41.06 40.71 43.56 48.46 51.83 49.07 43.94 38.42 38.33 39.16 41.36 39.91 39.05 37.55 37.95 38.51 38.94 40.16 41.85 42.06 41.01
37.67 37.53 37.20 37.67 38.37 38.55 36.42 34.33 35.24 35.40 34.96 36.01 39.02 40.10 40.98 41.77 45.25 46.12 47.97 49.64 45.63 41.65 40.49 41.55 43.95 50.56 50.95 47.84 43.34 46.46 46.89 45.47 39.49 36.83 36.05 36.09 35.73 36.78 39.62 41.96 43.64 44.30 45.11
38.35 37.72 37.07 36.81 36.50 36.55 34.11 33.80 34.32 35.01 36.02 38.35 38.86 38.74 39.77 43.33 44.28 46.91 49.37 49.11 46.69 42.20 41.89 44.17 49.70 50.92 50.52 47.65 47.62 47.75 46.06 38.64 36.42 35.63 34.57 34.21 35.17 38.96 40.98 43.10 45.30 47.13 48.51
37.20 37.43 36.61 36.11 34.82 34.24 35.14 35.68 35.33 37.00 37.09 38.50 39.13 38.46 39.86 43.21 43.64 46.24 48.48 47.38 47.66 43.49 45.47 47.66 48.60 47.69 46.72 46.16 43.94 42.24 38.96 37.50 36.92 34.64 33.86 34.52 37.20 39.77 41.71 43.91 44.49 46.15 49.42
36.34 36.18 36.16 36.76 35.54 34.55 35.35 35.17 36.11 37.10 39.61 39.80 39.67 40.29 40.22 41.92 44.13 48.04 47.71 45.58 43.25 43.88 44.97 44.33 42.43 41.84 40.39 39.16 37.97 36.94 37.09 36.63 34.80 34.10 34.20 36.56 38.13 40.76 41.97 44.57 45.38 46.85 48.88
35.83 35.39 36.49 36.49 36.09 36.20 36.35 35.59 40.45 41.90 44.03 43.82 43.85 43.31 44.29 45.95 46.53 48.64 47.26 45.80 46.45 47.54 42.76 40.82 40.28 39.49 37.87 36.86 35.52 35.12 35.23 35.96 34.47 34.91 37.18 36.70 38.23 40.49 42.20 43.78 45.24 46.65 48.32
35.76 36.44 36.01 36.83 35.45 35.30 36.41 36.75 36.16 40.53 42.68 42.89 44.18 47.52 46.32 45.68 48.83 47.30 46.81 47.36 47.54 45.16 40.25 39.57 38.53 37.63 36.73 36.19 34.94 34.50 33.58 34.34 35.33 37.52 37.11 36.42 39.49 41.13 42.05 42.66 44.05 45.70 48.22
37.79 39.63 37.95 37.62 37.47 37.14 37.09 37.30 38.92 37.73 37.15 38.66 46.05 45.80 46.26 48.42 47.54 47.47 47.31 45.12 40.77 41.25 39.44 38.55 37.50 37.38 36.94 36.11 34.69 34.30 34.82 35.77 36.68 37.77 36.50 36.69 39.48 40.57 41.18 41.64 42.89 44.18 48.07
38.13 37.89 38.06 38.08 37.96 38.38 38.36 38.60 38.39 37.93 38.16 41.68 43.37 45.17 47.60 47.68 47.82 47.24 45.18 40.18 38.90 38.71 38.86 38.62 38.32 37.55 37.07 36.65 35.26 36.46 36.64 36.96 36.74 36.34 36.24 37.36 39.14 40.13 40.62 41.53 42.50 44.86 47.87
37.10 40.12 40.66 40.44 39.98 39.14 38.44 37.54 37.06 38.02 40.59 41.41 41.82 42.45 44.98 45.21 41.04 38.81 39.76 39.75 39.13 39.00 39.13 37.98 37.53 37.60 37.53 36.65 36.40 36.22 36.17 36.02 35.78 35.82 35.54 37.31 38.98 39.79 40.21 41.05 41.93 43.16 46.21
36.80 39.31 41.00 39.75 39.59 40.12 40.86 39.73 40.88 40.91 40.77 42.00 43.29 44.31 43.84 39.83 38.77 38.80 39.13 39.44 39.30 38.89 38.13 37.69 37.51 37.88 37.76 36.86 36.45 36.58 36.03 35.53 35.56 35.46 35.20 36.01 38.32 38.40 40.33 41.48 41.92 43.24 44.69
37.31 38.65 38.91 38.09 38.53 39.25 39.77 40.51 40.13 39.59 39.38 39.20 39.90 41.00 41.71 39.13 38.94 38.78 38.81 39.05 39.27 39.03 38.85 38.42 38.12 38.22 37.66 37.25 37.40 36.82 35.88 35.78 35.78 35.43 35.19 35.34 36.31 38.44 40.08 40.91 41.27 42.00 43.08
36.79 36.92 38.03 37.76 38.08 39.36 38.41 38.87 38.95 38.68 38.23 38.30 38.36 38.19 38.12 37.92 38.22 38.35 38.45 38.61 38.79 38.58 39.05 38.47 37.93 37.28 38.29 38.15 38.50 38.05 36.69 36.30 36.27 36.19 35.30 34.68 35.30 37.19 39.83 40.32 40.70 41.03 41.51
36.35 36.08 36.01 36.59 38.00 37.75 37.68 37.50 38.08 38.32 37.79 37.66 37.55 37.41 37.37 37.70 37.78 37.89 38.03 38.13 37.97 37.97 38.10 38.20 38.67 38.86 38.93 38.93 39.68 39.79 39.54 37.74 36.95 36.27 35.88 35.26 35.22 38.66 40.02 40.36 40.69 40.87 41.22
36.64 35.74 35.23 34.97 35.08 35.44 36.17 37.23 37.59 37.51 37.36 37.48 37.22 37.03 37.21 37.51 37.40 37.37 37.33 37.14 37.44 37.31 37.57 38.85 38.94 38.67 38.77 39.84 40.38 39.67 39.29 38.83 37.39 38.27 36.84 37.24 39.40 39.48 39.68 40.25 40.21 40.33 40.98
35.97 35.87 35.29 35.27 35.13 35.20 34.95 35.01 35.64 36.19 36.99 37.45 37.48 37.47 37.58 37.40 37.56 37.36 37.17 37.19 37.05 37.44 37.85 39.69 39.58 39.23 39.87 39.76 39.96 39.28 39.07 39.07 38.76 39.87 37.62 37.84 37.10 38.68 39.53 39.58 39.73 39.53 39.92

GFSGL_sfc_wetblb_036.txt.gz
Wetbulb
40.37 40.58 39.93 40.05 39.84 39.49 38.68 39.35 39.71 40.83 41.11 42.39 44.25 44.97 44.76 44.75 44.42 44.07 44.18 45.02 45.43 46.26 46.60 46.06 46.13 46.20 44.44 42.61 41.51 39.06 37.52 37.17 38.67 35.79 36.03 36.49 36.87 37.99 40.73 42.02 44.22 44.10 44.33
41.13 40.55 41.18 41.07 40.79 38.89 38.20 38.91 39.24 39.23 40.34 41.71 43.83 44.30 44.73 45.03 44.56 43.92 43.50 44.61 44.33 44.89 46.07 45.27 45.71 46.22 44.55 42.95 41.89 39.48 39.66 36.94 37.07 35.51 35.61 35.75 36.39 37.45 38.64 39.25 41.56 43.80 42.31
41.31 41.33 40.78 40.11 39.81 39.07 38.44 39.12 39.60 39.55 40.34 40.89 42.54 42.71 43.72 44.39 44.23 44.28 44.24 44.64 44.75 45.21 45.92 45.24 45.54 45.73 43.90 42.28 42.05 40.58 39.68 39.67 36.67 35.96 35.52 36.10 36.84 37.40 37.86 38.57 39.46 39.89 41.94
40.93 40.81 39.83 39.73 39.44 38.94 39.08 39.21 39.41 40.02 39.59 40.55 40.89 42.19 43.55 44.47 44.80 44.57 44.56 44.40 44.42 45.10 45.87 46.10 46.22 45.79 44.52 43.45 41.84 41.90 39.65 38.63 36.12 35.75 35.31 35.47 36.34 37.14 37.78 37.66 37.68 38.73 40.07
40.49 40.74 40.83 41.13 40.11 40.52 39.24 38.95 39.62 39.96 40.31 39.87 40.28 42.11 43.74 44.47 45.14 43.33 44.02 44.00 44.02 44.40 45.40 46.55 46.45 47.09 49.76 47.44 43.68 42.00 39.53 38.76 36.80 36.38 34.79 35.36 35.65 35.70 36.13 37.12 37.11 38.30 38.94
39.00 38.95 40.16 40.84 40.99 39.37 38.32 38.56 38.92 39.37 39.63 39.48 42.03 42.06 41.74 44.30 47.16 47.50 45.77 43.16 44.30 44.87 44.40 45.54 47.23 50.13 50.32 51.77 51.12 49.09 43.57 38.98 37.70 37.04 35.03 35.06 35.06 36.27 36.91 37.08 37.01 36.42 35.83
36.90 37.65 38.38 39.03 39.21 39.60 39.96 39.15 38.66 38.48 38.77 39.65 39.80 39.73 40.18 41.38 46.60 47.24 46.70 44.13 44.45 44.72 45.07 44.43 46.57 48.33 49.51 47.88 51.09 51.97 49.24 48.45 45.74 39.49 36.44 36.39 35.83 37.09 37.62 36.90 36.55 36.70 37.54
35.54 35.96 36.76 37.47 37.89 39.18 39.10 38.80 38.11 38.26 38.02 38.30 38.08 38.79 39.56 40.97 45.96 46.14 46.41 44.55 44.15 44.86 45.18 44.11 45.52 46.34 46.04 46.80 46.50 47.04 44.54 44.92 44.75 42.30 39.18 38.27 38.79 39.39 39.17 39.29 38.82 38.90 40.15
35.02 35.52 36.23 36.98 37.07 37.43 37.61 37.43 37.31 37.38 36.91 37.08 38.47 38.77 38.90 39.50 44.30 44.88 44.78 43.74 43.46 44.23 44.37 44.23 46.59 45.91 47.26 49.90 46.01 44.35 41.80 41.21 48.57 48.27 45.18 46.64 47.40 46.90 42.85 40.44 40.44 38.43 38.58
35.99 36.74 37.33 37.51 37.01 36.75 37.03 38.38 39.32 38.91 38.18 38.63 38.42 38.57 40.35 38.12 42.38 44.49 44.84 43.24 42.53 43.75 43.35 44.49 48.56 46.16 48.66 50.21 45.59 43.51 40.73 38.27 40.91 40.48 40.91 44.20 45.76 43.15 46.74 42.53 40.45 38.47 37.72
38.53 38.78 37.78 38.62 37.77 37.74 37.63 37.52 38.20 38.03 36.98 34.75 35.47 36.31 36.52 38.14 39.43 44.95 45.95 43.56 43.51 43.69 43.21 44.31 45.06 48.02 49.03 49.43 48.98 43.46 42.55 38.93 42.29 37.81 38.47 38.70 37.69 37.83 38.00 38.31 39.37 39.48 39.05
39.21 38.28 37.60 38.45 38.46 38.15 36.88 35.79 34.84 34.07 32.31 33.33 34.00 34.82 37.80 40.89 43.81 44.71 46.29 47.28 47.02 44.64 43.88 44.03 44.98 49.17 48.75 49.44 46.58 46.93 47.01 43.41 39.28 37.70 36.31 35.74 35.59 35.31 36.56 38.59 40.51 42.39 43.26
39.02 37.85 37.47 37.64 37.65 37.36 35.67 34.39 33.29 33.42 32.88 33.28 34.49 36.12 37.51 40.92 41.58 44.63 47.39 47.45 47.84 45.45 43.86 44.27 46.38 48.21 49.25 48.27 47.88 48.36 45.94 38.96 36.32 35.07 34.59 33.99 34.49 35.99 37.70 40.85 43.23 45.34 46.86
37.87 36.70 35.62 35.20 36.37 36.98 34.90 34.44 33.43 33.23 33.09 34.30 35.47 35.80 38.82 40.39 41.02 42.82 44.29 45.76 47.18 44.50 45.09 44.83 47.21 47.48 46.50 47.03 46.00 42.26 38.27 36.87 36.13 34.38 33.41 33.99 35.71 37.67 40.04 43.29 44.00 45.50 47.67
37.62 36.97 36.17 35.85 35.89 36.17 37.06 35.97 35.47 36.02 35.53 35.39 36.44 38.49 39.77 39.77 41.33 44.02 45.12 43.27 43.18 44.20 45.77 46.15 43.86 41.76 40.59 38.99 37.06 36.99 37.75 36.58 34.21 33.65 34.40 35.50 37.19 39.64 42.05 44.45 45.00 46.54 47.76
36.51 36.54 36.10 36.43 36.42 37.28 35.62 35.62 40.10 40.84 41.73 42.47 43.70 43.08 42.03 44.02 45.33 46.72 46.92 45.45 46.77 47.62 43.74 41.63 40.29 39.69 37.82 35.94 35.35 35.68 35.86 36.73 34.42 35.53 36.06 36.23 38.20 40.73 42.02 43.60 45.32 48.03 46.67
35.88 37.19 37.30 38.15 37.29 36.32 36.16 36.02 35.97 37.09 41.29 42.78 42.86 43.83 45.06 46.44 45.57 46.81 46.86 47.75 46.97 44.97 40.66 39.54 38.41 37.03 36.34 36.27 35.61 35.48 34.80 34.92 36.18 35.88 35.36 37.09 40.07 41.18 41.92 42.60 44.90 47.54 46.74
37.29 39.44 37.42 37.54 37.77 37.74 37.49 37.03 37.13 36.91 36.70 37.54 41.56 45.88 45.80 46.69 47.23 46.96 47.00 45.21 41.45 41.25 39.46 37.65 36.89 37.34 36.89 36.00 35.94 36.10 36.06 36.93 35.82 35.24 36.00 38.73 40.01 40.47 41.21 41.88 43.83 46.86 47.52
37.19 37.19 39.18 39.73 40.14 39.59 38.56 37.95 38.04 38.21 37.79 38.06 42.87 45.39 46.97 47.48 47.13 45.59 43.66 39.90 38.72 38.16 38.03 37.72 37.65 37.31 36.66 36.91 37.61 37.72 37.81 36.56 34.91 34.88 37.69 38.36 39.48 40.01 40.78 41.97 43.66 47.88 47.70
37.46 39.95 40.64 38.62 38.94 39.71 39.40 38.08 37.08 37.19 37.95 41.15 42.35 43.74 42.65 41.40 39.26 39.07 39.83 39.82 39.06 38.49 38.40 37.51 37.51 37.54 37.99 38.27 38.07 37.37 35.88 34.81 34.13 35.69 37.19 38.00 39.22 40.31 40.72 41.73 43.63 46.70 46.88
36.78 37.28 40.57 37.60 38.21 39.88 41.20 39.63 40.01 40.77 40.57 41.14 42.10 42.12 42.62 39.16 38.56 38.71 39.01 39.10 38.97 38.82 37.96 37.96 37.76 37.99 38.25 38.10 37.72 36.57 35.34 34.39 33.91 34.96 36.70 37.47 38.85 39.60 41.39 42.26 43.41 45.80 47.47
36.30 36.36 37.44 37.19 37.97 38.71 39.21 39.50 39.32 39.33 39.82 39.53 39.92 40.71 41.68 39.32 38.85 38.69 38.53 38.40 38.78 38.92 38.95 38.55 38.23 38.37 38.74 38.63 37.93 36.46 35.09 34.32 34.08 34.03 36.14 37.06 38.47 40.22 41.26 41.63 42.38 43.38 45.08
36.57 35.51 35.64 36.27 37.37 38.40 37.23 37.93 38.27 38.34 38.18 38.42 38.60 38.57 38.62 38.48 38.61 38.25 38.15 38.62 38.84 38.62 38.96 38.92 38.57 38.37 39.20 38.96 38.50 37.45 35.91 34.65 34.52 34.58 33.99 35.71 38.62 40.13 40.86 40.92 41.21 41.82 42.76
36.44 35.60 35.05 35.29 36.16 36.94 37.61 37.46 37.95 38.28 38.02 37.79 37.64 37.95 38.05 38.22 37.91 37.51 38.00 38.53 38.23 38.34 39.24 39.58 39.52 39.39 39.19 39.19 39.04 37.96 37.21 36.20 35.59 35.09 34.77 35.65 38.83 40.03 40.41 40.36 40.75 41.27 42.21
35.89 35.36 34.89 34.72 34.81 34.95 35.79 36.38 37.45 37.49 37.51 37.52 37.36 37.44 37.89 38.07 37.58 37.57 37.55 37.69 38.09 38.41 38.76 38.86 39.02 39.31 39.69 39.69 39.52 39.21 38.72 38.75 36.87 37.72 36.01 38.45 38.78 39.29 39.82 39.65 39.83 40.52 41.46
35.03 34.87 34.51 34.72 34.57 34.86 34.77 34.65 35.01 36.38 37.04 37.34 37.67 37.94 37.97 37.63 37.63 37.49 37.26 37.49 37.93 38.61 39.22 39.44 39.29 39.72 39.83 39.45 39.05 38.60 38.81 39.04 38.27 39.01 38.59 38.63 38.33 39.03 39.05 38.66 38.86 39.28 40.22

GFSGL_sfc_wetblb_039.txt.gz
Wetbulb
44.62 44.91 44.66 45.25 44.71 45.23 44.50 45.04 45.43 45.39 45.37 45.62 46.04 46.26 46.54 47.41 48.64 49.28 49.18 49.31 49.16 49.39 49.82 49.56 50.17 51.25 50.32 49.69 47.13 45.11 45.72 47.46 47.55 50.36 48.24 47.64 46.23 47.08 47.13 50.38 50.34 50.52 51.05
44.18 43.89 44.38 45.07 44.52 44.33 44.22 44.59 45.13 43.82 44.78 45.00 45.23 45.18 45.78 47.03 47.18 47.24 47.46 48.36 48.72 48.24 48.45 48.23 48.43 49.82 50.02 50.24 47.67 44.51 43.83 46.11 45.29 47.50 46.68 44.81 46.10 46.49 47.83 48.48 47.96 48.34 49.21
43.25 43.05 43.22 43.34 43.52 43.73 43.59 44.28 44.11 43.60 43.46 44.32 44.27 44.40 45.14 45.94 46.14 47.03 47.69 48.09 48.27 47.28 47.18 47.18 47.40 48.36 48.77 49.42 47.57 45.78 43.67 46.22 43.06 48.12 46.47 45.70 44.94 45.61 45.46 46.63 46.90 47.41 47.96
41.77 41.57 41.47 42.07 42.72 43.48 43.93 44.15 43.68 43.48 42.94 43.54 44.11 43.86 44.75 45.19 46.32 47.31 47.85 47.72 46.84 46.64 46.95 47.22 47.46 47.91 48.16 49.01 48.32 45.16 44.69 45.14 44.11 45.24 46.36 44.23 44.62 44.74 46.00 44.84 44.20 46.21 46.45
39.00 39.12 39.46 40.56 41.50 42.08 42.62 43.20 43.27 43.11 42.95 43.25 43.06 43.42 44.09 44.92 46.09 46.07 46.77 47.04 46.38 46.11 46.44 46.71 47.64 48.97 50.43 50.64 48.74 46.91 46.01 42.85 43.24 43.41 44.56 43.95 43.54 42.78 42.82 44.95 44.76 46.12 46.53
38.00 37.98 39.14 39.35 39.65 40.05 40.90 41.35 42.18 42.15 41.92 42.78 42.56 42.55 42.65 44.46 46.59 46.80 46.67 46.22 46.21 45.31 44.81 45.84 47.16 48.96 49.46 51.01 52.20 51.18 46.80 42.94 41.97 41.64 44.86 43.63 44.06 44.74 45.17 44.36 44.45 43.31 42.20
37.87 38.00 38.31 38.83 38.67 39.11 39.75 39.99 40.47 41.46 42.00 42.29 42.32 42.29 42.31 44.06 46.23 46.73 46.88 46.04 45.08 44.48 44.37 45.12 46.02 45.85 48.11 48.71 50.62 52.67 52.31 49.62 47.86 43.90 44.96 44.71 45.21 45.27 45.61 44.36 44.38 44.33 44.25
38.01 37.99 38.48 38.49 37.53 38.58 38.98 38.85 39.54 40.56 41.19 41.65 41.74 41.74 41.87 42.61 45.23 46.31 46.60 45.24 44.66 44.16 44.43 44.77 44.22 45.17 46.53 47.89 48.47 49.60 49.31 50.68 49.23 48.17 46.76 47.29 47.51 47.11 46.47 46.36 45.73 45.88 46.09
37.12 37.63 38.23 38.61 37.89 38.45 37.69 37.71 38.72 39.59 39.36 40.21 40.86 40.77 40.74 41.51 44.36 45.19 44.47 43.24 43.08 43.75 44.93 44.52 44.60 45.15 47.37 48.59 47.06 47.76 47.28 48.04 51.09 51.00 49.20 48.83 47.65 47.21 47.00 46.39 44.17 43.64 42.84
37.27 38.63 39.47 39.30 39.18 37.96 36.52 37.43 38.56 39.48 39.74 40.41 39.99 40.89 42.10 41.19 43.57 43.91 43.39 42.68 42.38 43.16 44.32 44.78 46.37 45.99 47.78 48.44 46.52 46.42 45.02 44.61 46.59 47.84 45.17 47.36 48.66 48.71 48.00 47.45 47.23 44.24 43.81
38.60 39.63 39.91 40.26 39.13 38.14 38.09 37.64 38.27 38.98 38.63 39.53 39.41 39.51 40.19 40.64 40.72 42.46 43.39 42.38 41.73 42.35 42.31 44.23 45.45 47.35 47.81 48.66 49.97 47.01 46.09 46.00 47.23 47.08 46.05 47.35 46.95 46.82 46.96 47.40 47.11 45.41 42.94
39.42 38.99 38.99 39.76 39.19 38.62 37.65 37.94 37.68 37.59 36.75 36.71 36.73 37.59 39.03 39.36 41.14 42.74 44.52 45.07 45.65 43.53 43.52 44.15 45.30 47.17 47.69 48.73 50.12 49.22 49.02 47.20 46.29 44.26 43.46 43.89 43.73 43.75 44.41 44.15 44.55 45.08 45.78
38.92 37.48 38.64 39.08 37.95 37.48 36.84 36.89 36.72 37.38 36.41 36.13 36.09 36.63 37.38 39.32 41.17 43.06 44.91 46.01 46.21 45.12 45.63 46.51 46.64 46.86 48.56 49.84 50.76 49.47 48.51 44.64 43.68 42.58 42.54 42.71 42.89 43.51 44.07 44.11 45.52 44.57 44.08
37.82 37.64 38.25 38.20 37.79 37.97 37.12 37.71 37.09 36.33 35.87 35.61 35.83 36.14 37.43 38.82 39.61 41.95 42.98 43.16 44.34 44.91 46.07 46.56 46.86 46.82 49.26 47.33 47.77 46.68 44.17 43.84 43.14 42.21 41.54 41.98 43.44 43.07 43.93 44.85 43.62 45.14 46.60
37.19 37.60 37.64 37.85 37.16 37.10 37.91 38.26 38.15 38.62 37.93 36.34 37.02 37.25 37.28 37.67 39.95 43.83 43.63 42.93 43.93 44.76 45.33 45.22 44.96 44.51 42.41 41.47 41.12 42.54 42.81 41.80 40.27 41.00 41.56 42.10 41.90 43.39 42.66 44.36 44.88 46.54 47.74
36.78 37.41 37.59 37.45 37.77 38.02 37.55 37.26 40.44 41.15 41.74 41.99 42.27 41.75 42.23 44.08 44.70 45.00 45.79 46.01 45.48 46.12 43.82 42.03 41.16 41.30 40.22 39.55 39.14 38.77 39.87 40.64 41.48 41.72 41.58 41.64 41.57 41.38 42.39 44.35 46.08 49.03 46.80
36.87 37.57 37.83 38.26 37.42 37.05 37.56 37.49 36.66 39.59 41.29 41.91 42.65 43.44 44.23 44.52 46.65 46.53 45.93 46.63 46.10 44.54 40.98 41.05 40.15 39.80 39.09 39.01 38.58 39.22 39.66 40.95 40.84 40.86 41.66 41.23 41.02 41.84 42.88 44.57 47.88 48.73 47.58
37.55 40.08 37.80 38.39 38.45 38.70 39.08 38.12 38.14 37.24 37.10 38.11 41.43 43.63 45.63 46.92 47.08 46.21 45.00 43.74 41.11 41.77 40.62 39.82 39.25 39.57 38.41 38.60 39.53 39.83 39.69 39.78 39.92 40.73 40.61 39.84 40.75 41.71 42.71 43.92 48.33 48.29 47.46
37.18 37.00 37.80 38.70 38.05 39.55 40.46 39.18 38.64 38.49 38.01 38.32 43.86 45.37 45.45 45.21 44.74 44.31 43.51 41.03 40.27 39.87 39.60 39.54 38.94 38.58 39.61 39.89 39.97 39.94 39.71 39.11 39.42 39.99 38.76 39.44 40.55 41.44 42.06 43.36 48.53 47.88 48.03
37.22 39.23 39.02 37.64 37.10 39.00 40.31 38.57 38.09 38.28 39.34 41.26 40.59 40.72 41.57 41.83 40.54 40.87 41.34 40.96 40.10 39.84 39.16 38.73 39.65 40.11 40.50 40.10 39.43 39.03 38.54 38.54 38.51 38.05 38.34 39.40 40.74 41.71 42.03 44.27 49.31 48.43 48.23
36.75 36.46 38.85 36.35 36.54 37.55 39.67 39.72 40.91 41.22 40.57 40.36 40.50 41.67 42.45 40.77 40.06 40.19 40.25 40.02 39.42 38.84 38.69 39.34 39.85 39.98 39.63 39.60 39.08 38.70 38.07 37.72 37.68 37.82 38.43 39.20 40.73 40.99 42.50 45.37 48.18 48.11 47.84
36.52 36.07 35.48 35.25 36.73 36.41 37.95 39.51 39.68 39.40 39.18 38.96 39.49 40.47 41.44 40.20 39.71 39.55 38.94 39.25 39.67 40.07 40.59 40.63 40.28 40.14 40.05 39.54 39.32 38.40 38.20 37.38 37.48 38.07 38.76 39.66 40.74 41.45 42.43 43.95 46.29 47.97 48.00
36.22 35.79 35.40 35.53 36.33 38.01 37.38 38.40 38.51 38.66 38.79 39.15 39.49 39.24 39.09 38.96 39.13 39.09 38.82 39.40 39.68 39.90 40.81 41.11 40.57 39.93 40.27 40.27 40.05 39.89 38.79 38.44 38.43 38.28 38.50 39.49 40.23 40.65 41.44 41.89 43.20 45.37 46.87
35.75 35.35 35.04 35.33 36.20 35.99 36.51 37.32 38.17 38.56 38.50 38.44 38.37 38.39 38.47 38.06 38.34 38.46 39.01 39.76 40.26 40.57 41.38 41.50 40.65 39.95 39.90 39.83 40.33 40.75 40.57 40.46 40.62 40.33 40.10 39.51 39.76 40.25 40.46 40.83 41.76 43.47 46.97
35.35 34.83 34.50 34.67 34.86 35.06 35.42 35.80 37.27 38.10 38.36 38.46 38.11 38.27 37.39 37.74 38.25 38.74 39.31 40.11 40.28 39.89 40.05 40.51 40.79 40.23 40.05 39.93 40.05 40.02 38.79 38.23 39.62 39.61 40.99 40.26 39.55 39.43 39.54 40.03 41.20 42.85 45.52
35.12 34.68 34.36 34.62 34.49 34.73 34.90 34.64 34.60 34.99 36.60 37.72 37.78 37.74 37.58 37.72 38.25 38.69 39.39 39.99 39.74 39.71 39.96 40.28 39.75 39.47 39.44 39.72 39.56 38.48 38.60 38.75 39.34 39.12 41.02 40.25 39.09 38.59 38.73 39.04 40.20 41.34 43.06

GFSGL_sfc_wetblb_042.txt.gz
Wetbulb
45.08 45.49 45.46 45.69 46.12 46.72 46.48 46.87 47.29 47.24 46.80 46.92 47.21 47.61 47.84 47.69 48.26 48.10 48.37 49.53 49.41 49.94 50.21 50.34 50.65 51.55 51.73 53.08 53.84 52.52 50.48 49.89 45.24 50.85 54.57 55.60 53.01 52.40 51.78 52.17 53.64 53.11 53.80
45.04 44.71 44.65 45.09 45.36 45.25 45.45 45.96 46.54 46.25 46.84 47.09 46.62 46.56 46.95 47.24 47.67 47.27 47.62 47.94 48.04 48.12 48.85 49.71 49.76 50.15 50.44 51.83 52.57 52.42 50.82 51.03 46.22 45.82 51.82 53.66 51.49 52.11 52.09 51.06 51.50 52.19 52.87
43.75 43.43 43.14 43.20 43.18 43.24 43.94 44.67 45.23 45.13 46.10 46.14 45.71 45.75 46.08 46.40 46.71 47.37 47.46 47.07 47.13 47.70 48.31 49.12 49.49 49.31 49.09 49.76 50.68 51.36 51.73 50.92 48.74 47.05 46.95 49.81 51.55 51.75 50.91 50.84 51.73 51.74 51.39
42.89 42.53 41.88 42.16 42.44 42.57 43.10 43.44 43.62 44.18 43.76 44.65 45.39 44.76 45.53 45.91 46.62 46.72 46.75 47.25 48.28 48.78 48.90 49.31 49.05 49.02 48.87 49.29 49.51 49.91 50.70 50.24 49.63 45.55 44.03 45.71 49.86 50.15 50.05 48.67 48.25 49.93 49.13
41.86 41.77 41.90 42.51 42.28 42.00 41.70 42.13 42.93 42.98 43.10 43.67 43.75 44.17 44.76 45.11 45.11 44.56 46.19 47.22 47.38 47.61 48.15 48.34 48.52 49.02 49.67 49.93 49.22 49.58 50.16 48.79 49.06 47.56 43.20 44.47 48.01 47.85 47.00 48.43 47.72 48.33 48.84
41.64 41.17 42.14 41.89 42.47 41.63 41.54 41.29 41.58 41.22 41.57 41.77 41.68 42.90 42.84 43.82 45.93 46.19 46.91 46.32 46.60 46.56 46.15 47.05 47.66 48.41 48.51 50.01 50.66 51.37 51.05 48.90 47.59 46.90 44.33 46.06 47.26 48.23 48.09 48.46 48.18 47.05 45.49
39.51 39.96 39.86 40.51 40.87 40.46 40.10 40.14 40.38 40.68 41.14 40.92 41.44 42.04 42.20 43.53 45.79 46.29 46.90 46.74 46.18 46.16 46.34 46.75 46.64 46.63 48.44 47.78 49.33 50.69 51.03 52.15 51.48 49.77 45.01 46.55 45.54 48.81 48.91 48.91 48.48 48.33 47.38
39.14 39.50 40.57 40.60 39.35 39.88 39.74 39.48 40.18 40.12 40.44 40.45 41.17 41.36 42.03 43.27 45.14 45.83 46.38 46.09 45.81 45.99 46.38 46.48 46.22 45.98 46.92 46.77 45.75 46.17 48.58 50.50 51.01 50.14 47.88 47.98 47.30 49.03 48.14 49.83 48.72 49.17 49.63
37.52 39.62 39.31 38.99 38.64 39.44 39.29 39.58 39.41 40.35 38.57 40.30 40.57 40.99 40.90 41.92 44.57 45.02 45.40 45.10 44.68 45.03 45.55 45.80 45.33 45.24 46.93 47.49 45.13 45.96 46.45 48.47 52.34 52.96 51.55 49.63 49.50 50.16 50.37 48.21 47.54 46.44 45.45
38.35 38.26 39.21 39.20 39.88 38.70 39.27 39.48 39.61 39.17 39.16 39.02 40.31 40.84 42.22 41.25 43.61 44.63 44.57 43.83 42.90 43.41 44.34 44.56 45.89 45.94 46.93 46.90 46.17 46.29 45.45 47.67 49.67 50.31 50.34 50.20 49.96 48.97 51.20 49.65 48.59 45.92 45.83
39.47 39.84 39.54 39.69 39.39 39.61 39.71 39.48 39.48 38.68 39.13 38.59 39.17 40.36 40.70 41.69 41.77 44.01 44.34 43.13 42.26 41.84 42.37 43.51 44.76 45.91 46.34 47.40 48.17 47.48 47.41 49.02 49.05 47.55 47.77 45.90 45.35 46.81 47.77 49.02 49.80 48.79 46.88
39.67 39.07 38.68 39.37 39.58 40.06 39.25 38.62 38.11 38.30 37.93 37.91 37.49 38.18 40.05 40.39 42.53 43.23 43.84 43.80 43.98 42.76 43.12 44.78 45.69 46.19 46.90 47.69 47.76 48.68 49.17 49.20 47.16 46.25 45.37 44.34 45.51 47.24 48.01 49.41 50.58 50.34 49.78
38.03 37.85 38.10 39.12 39.53 39.76 38.89 38.62 38.21 37.98 37.67 37.38 37.13 36.81 37.44 39.86 41.18 42.48 43.14 44.15 44.99 43.23 44.50 46.05 46.64 47.14 47.71 47.85 48.56 48.77 48.92 47.36 45.59 45.65 44.74 46.22 47.04 48.08 48.57 48.14 47.84 47.85 47.50
37.19 37.27 38.12 38.26 39.38 39.37 39.35 39.45 39.22 37.87 37.58 37.62 37.41 37.10 38.24 38.85 40.06 41.64 42.53 41.70 43.86 44.45 45.38 44.75 45.64 47.09 48.18 48.36 47.91 47.63 47.27 45.84 45.76 44.78 45.49 46.86 47.54 46.46 45.55 46.02 45.89 47.17 44.79
36.95 36.84 37.36 38.21 38.29 38.55 38.93 39.04 38.85 39.75 39.67 38.81 38.91 38.68 37.81 38.86 40.48 42.32 42.81 41.32 42.09 43.45 43.47 44.11 42.12 43.26 43.99 43.80 44.82 44.46 44.33 44.81 44.94 45.98 45.59 44.80 44.25 44.63 44.68 47.61 46.77 45.16 45.39
36.17 36.58 37.35 37.93 37.93 38.16 38.73 38.81 41.72 42.48 42.62 42.56 42.89 42.02 41.86 42.99 44.21 44.70 45.11 44.85 44.99 45.32 42.85 43.41 42.51 41.85 40.90 40.73 40.77 41.39 42.64 43.43 43.38 44.07 44.42 43.87 43.64 44.89 45.37 44.34 45.30 46.03 47.99
36.46 37.21 37.67 37.88 37.28 37.58 37.14 37.58 37.55 39.34 42.02 42.51 43.33 43.87 44.45 46.66 46.73 46.41 45.92 45.72 45.24 45.83 41.17 40.29 39.61 39.24 39.21 39.90 40.67 41.19 41.28 42.28 43.24 43.04 43.48 44.91 44.75 43.71 43.59 44.15 45.67 47.94 47.87
37.77 39.85 37.42 37.40 37.62 37.26 38.68 39.85 39.55 38.06 37.11 38.25 44.81 44.99 46.15 45.55 45.27 44.79 44.34 43.20 40.65 41.30 39.85 39.01 38.85 39.76 40.36 40.86 41.48 40.87 40.69 41.38 42.73 43.82 43.21 42.52 42.44 42.64 43.35 46.21 48.37 47.93 48.31
36.95 36.83 37.60 37.48 37.12 38.20 39.32 40.31 39.43 39.07 40.42 40.85 42.04 43.46 44.45 44.61 44.56 44.65 44.19 41.60 40.33 39.85 40.40 40.27 41.30 41.35 41.42 41.43 41.14 41.04 41.33 41.56 42.54 40.49 40.16 40.50 41.32 42.93 44.26 48.84 49.10 48.28 48.38
36.63 39.30 38.89 36.75 36.54 36.33 38.96 40.72 41.25 40.67 40.25 40.15 40.29 40.71 42.36 42.94 40.96 41.52 42.50 42.17 41.17 40.78 40.97 40.91 41.07 41.00 40.79 40.29 40.00 40.07 39.74 40.53 38.82 38.79 39.15 40.18 42.00 43.27 45.75 49.47 49.75 48.59 48.96
36.36 36.70 39.17 36.33 36.19 36.60 39.33 39.94 40.29 39.97 39.77 39.98 40.49 42.12 42.74 40.50 39.67 39.94 40.37 40.49 40.82 40.58 40.72 41.17 40.63 40.39 40.02 39.91 39.62 39.51 40.08 39.04 38.09 38.64 39.40 40.69 42.39 42.76 47.74 49.48 49.71 49.74 49.09
36.43 36.37 36.37 36.11 36.04 37.17 38.43 39.81 39.79 39.80 39.89 39.30 39.69 40.70 41.16 39.87 38.95 38.48 39.01 39.37 40.39 41.39 41.63 40.75 40.16 40.24 40.47 40.24 40.23 39.15 38.85 37.61 37.88 38.27 39.71 40.89 41.93 43.35 47.70 49.76 49.70 49.36 48.77
36.21 35.79 35.59 36.01 36.81 37.73 37.71 38.63 39.13 39.09 38.89 39.22 39.04 38.74 38.68 38.17 38.29 38.33 39.05 40.15 40.95 41.06 41.46 41.32 40.77 40.18 40.66 41.06 41.42 40.92 38.88 38.26 39.12 39.82 39.72 40.39 41.00 42.06 44.92 47.59 48.08 48.88 48.43
35.19 35.65 35.13 35.11 36.29 36.09 36.09 37.56 38.04 38.59 38.71 38.45 37.50 37.45 37.34 37.78 38.22 38.97 39.82 40.71 41.02 40.95 41.29 41.55 41.25 40.12 40.34 39.95 40.28 40.83 40.02 40.78 40.82 40.54 40.41 40.05 40.05 41.04 42.35 44.61 47.95 47.97 48.40
35.85 34.95 35.13 35.03 34.86 35.24 35.39 35.34 35.34 37.29 37.99 37.58 37.22 37.16 36.75 37.55 38.77 39.53 40.19 40.50 40.44 40.53 40.81 41.01 40.60 39.99 39.62 39.33 39.50 39.59 38.65 38.36 40.00 40.00 40.63 40.11 39.63 40.15 41.30 43.14 45.98 47.27 47.21
35.66 35.15 35.29 35.35 34.85 34.85 35.03 34.99 35.03 35.34 35.88 36.19 36.93 37.30 37.68 38.22 39.19 39.87 39.87 39.87 40.05 39.76 40.16 40.37 39.80 39.22 38.54 38.89 39.10 38.16 38.32 38.51 39.58 39.97 40.32 39.85 39.59 39.38 40.45 41.66 43.63 45.48 46.59

GFSGL_sfc_wetblb_045.txt.gz
Wetbulb
45.54 45.86 45.75 45.76 45.85 46.04 46.13 46.50 46.97 47.61 48.00 47.84 47.94 47.65 47.60 48.00 47.90 47.99 48.37 48.60 48.02 48.10 49.85 50.56 50.22 51.00 50.90 51.58 52.46 52.88 52.16 51.24 47.93 50.69 53.61 52.71 54.61 53.48 53.72 53.84 54.72 53.21 55.67
45.34 45.17 44.97 45.16 45.13 44.67 44.54 44.75 45.12 45.36 46.40 46.22 46.74 46.99 47.34 47.30 47.25 47.11 47.14 47.50 47.17 47.07 48.22 49.24 49.16 49.26 49.81 51.08 50.83 51.08 51.53 52.14 50.16 48.01 51.66 51.66 51.20 53.95 53.44 52.50 51.97 52.90 53.41
44.76 44.50 44.33 44.17 44.14 43.90 44.08 44.28 44.20 44.23 44.33 44.61 44.67 44.43 45.25 45.95 46.12 46.71 46.77 46.89 46.74 47.18 47.35 47.57 48.16 48.65 48.66 49.67 49.85 49.77 50.93 51.43 51.09 49.24 48.91 52.02 51.88 51.56 52.29 52.98 51.61 51.93 52.38
44.12 43.77 43.37 43.53 44.14 44.52 44.48 44.47 43.67 43.28 42.39 42.84 43.53 43.55 44.16 44.78 45.35 46.00 45.85 46.16 46.61 47.07 47.27 47.29 47.21 47.78 48.45 48.93 48.79 49.06 49.29 49.74 50.02 48.21 48.04 49.16 50.54 51.22 51.61 49.58 48.88 51.01 50.33
43.07 42.85 42.82 43.18 43.81 43.45 41.83 41.96 42.53 43.24 42.33 42.02 42.13 42.92 43.33 43.61 44.40 44.69 45.35 45.30 45.02 45.76 47.02 47.86 48.24 49.56 51.88 50.20 48.44 48.50 49.06 48.38 48.67 48.40 46.09 47.15 48.02 48.49 47.84 48.35 48.28 49.72 50.28
41.67 41.36 42.68 42.23 41.10 40.51 41.15 41.53 41.64 41.81 42.19 41.74 41.97 41.87 41.77 42.59 44.73 45.75 45.63 44.59 45.22 45.41 44.77 45.49 47.84 50.72 49.44 49.91 50.08 50.08 49.36 47.59 47.50 46.59 46.38 45.06 47.20 47.84 48.07 46.89 46.39 45.39 45.27
40.74 40.38 40.09 40.05 39.60 40.20 40.18 40.47 39.66 40.22 40.74 40.41 41.03 41.61 41.30 41.98 44.68 45.68 46.25 44.75 44.78 44.93 42.92 43.33 46.34 46.95 49.30 47.62 48.77 49.54 49.77 50.58 50.62 48.94 46.44 45.62 46.89 49.11 49.01 45.81 46.70 45.20 46.97
39.37 39.24 39.24 39.31 39.02 39.71 39.69 39.11 39.69 40.00 40.16 40.38 39.09 40.85 41.25 42.00 44.54 45.24 45.83 44.31 44.52 44.28 44.94 45.53 45.96 46.07 47.45 47.45 46.57 46.22 46.98 47.87 49.03 49.69 49.34 49.57 49.80 50.71 49.99 48.70 47.13 47.08 47.82
37.70 38.92 39.38 39.76 39.08 39.23 38.46 38.92 39.90 39.57 39.91 39.59 40.56 40.02 40.02 41.01 43.94 44.58 44.01 43.32 43.17 43.43 44.50 45.19 45.67 45.72 47.99 48.10 45.73 45.27 45.43 45.49 48.34 50.43 52.51 53.07 53.00 52.33 51.60 47.51 46.18 45.13 44.63
38.41 38.89 39.72 39.81 38.59 38.73 38.92 39.41 39.94 40.17 39.65 39.79 39.70 39.85 41.15 40.97 43.27 43.99 43.78 43.21 41.80 42.34 43.97 44.71 47.60 46.46 47.00 47.08 44.82 44.78 43.21 43.38 45.29 45.90 48.57 51.40 52.03 50.84 51.46 48.81 46.87 44.44 44.82
39.49 39.93 38.96 38.65 39.02 39.14 39.48 39.90 39.85 39.45 39.72 39.37 39.33 39.90 40.16 41.02 41.13 43.69 44.53 42.53 42.30 42.16 42.24 42.71 44.40 46.97 46.45 46.83 47.00 43.94 43.28 45.91 46.97 45.88 48.14 49.70 49.97 48.41 47.98 48.96 48.02 46.73 45.06
38.59 38.60 38.25 38.31 39.03 39.36 38.79 39.45 39.94 39.27 38.93 38.87 38.63 38.79 40.25 40.55 42.14 42.80 43.83 44.21 43.60 41.79 41.69 42.87 43.87 46.00 45.94 46.48 46.25 46.62 47.67 48.08 46.35 46.59 46.70 46.52 47.15 46.10 46.58 47.24 48.07 47.98 49.39
37.87 37.61 37.53 38.24 38.20 38.78 39.06 38.97 38.73 38.87 38.07 38.45 38.14 38.42 38.94 39.63 39.63 42.11 43.41 44.18 44.46 42.14 42.98 43.67 44.36 45.01 46.06 46.13 47.21 47.79 48.38 46.11 45.79 45.60 45.46 45.11 45.30 45.69 46.63 46.64 47.85 50.25 50.39
37.42 37.19 37.43 37.30 38.34 39.23 39.22 39.18 38.53 38.43 37.82 38.12 37.66 37.76 38.78 39.18 39.13 39.72 40.18 41.07 43.13 43.12 43.77 43.36 44.42 45.06 46.07 46.44 46.44 47.10 47.03 47.03 46.33 45.98 45.34 45.80 46.25 45.93 46.13 47.13 46.52 46.89 45.55
37.27 37.26 37.35 37.65 38.11 37.87 38.47 38.67 39.15 40.03 40.53 38.55 39.00 39.59 38.67 38.46 39.77 41.72 41.97 41.74 42.55 43.08 42.73 43.39 43.19 43.21 43.01 43.99 45.25 46.48 47.08 46.94 46.05 46.00 45.57 45.37 45.46 45.79 45.66 46.59 45.48 45.56 43.98
36.78 36.86 37.21 37.90 37.56 37.68 37.49 37.79 41.96 43.26 43.53 43.33 43.41 42.56 42.07 43.55 44.56 44.35 44.43 44.24 44.15 44.42 41.81 41.05 41.04 39.50 40.93 42.30 43.14 43.73 44.80 45.66 45.21 45.21 45.09 44.86 44.14 43.83 43.43 45.38 46.27 45.19 43.90
36.40 37.23 37.60 37.41 36.99 36.49 36.65 36.92 38.85 41.27 44.59 46.24 44.79 44.49 45.50 45.19 44.95 45.41 46.07 46.10 45.68 45.04 41.84 41.55 40.65 40.61 40.68 41.00 41.27 41.48 41.02 42.40 43.42 43.33 43.46 43.48 43.54 43.32 44.93 44.64 44.54 44.72 45.05
38.02 39.48 37.19 37.06 36.97 36.48 36.74 37.92 40.93 39.94 39.50 40.58 44.36 44.78 45.37 45.35 44.56 43.58 42.90 41.88 39.41 40.69 39.81 39.30 39.35 40.16 40.28 40.17 40.41 40.47 41.21 42.02 42.56 43.01 43.41 44.13 44.78 44.38 43.74 43.88 44.34 45.49 47.67
37.42 37.07 37.46 37.57 36.89 37.54 38.42 41.32 41.08 40.65 40.39 40.50 41.35 42.59 43.86 44.21 44.06 44.16 43.47 40.47 39.28 39.15 39.67 39.69 40.26 40.22 40.18 40.39 40.68 41.20 41.72 42.11 42.59 42.00 41.88 42.26 42.93 43.29 43.24 45.01 46.87 47.71 47.84
37.26 38.97 38.95 37.23 36.52 36.99 39.74 40.14 40.25 40.11 40.15 40.23 39.96 40.08 41.21 41.49 39.93 40.12 40.79 40.35 39.52 39.35 39.50 39.25 39.49 39.61 39.59 39.77 40.14 41.05 41.16 39.61 39.34 39.70 40.16 40.93 41.87 43.18 44.31 47.58 48.02 47.58 47.16
36.92 36.53 39.14 36.83 36.68 37.16 39.30 39.73 40.12 39.64 39.23 39.21 39.38 40.76 41.64 39.26 38.60 39.01 39.46 39.74 39.51 39.20 38.95 39.14 39.13 39.22 39.63 39.67 40.15 40.02 38.85 38.57 38.62 39.26 40.02 41.00 42.62 42.97 46.00 48.70 48.51 47.88 47.42
36.66 36.24 36.41 36.18 36.62 36.89 38.60 39.16 39.18 38.94 38.70 38.35 38.41 39.12 40.39 38.47 38.82 39.21 39.56 39.66 39.96 40.17 40.43 39.71 39.27 39.51 39.90 39.84 39.94 39.11 38.46 38.31 38.81 39.22 40.19 41.42 43.01 45.44 48.58 48.93 48.63 47.71 47.25
36.55 35.92 35.97 36.04 35.67 37.46 37.56 38.22 38.33 38.12 37.13 37.33 37.44 37.15 37.56 37.94 38.91 39.31 39.46 39.96 40.31 40.43 40.47 40.17 39.17 38.26 39.05 39.91 40.19 39.89 38.89 38.21 39.55 40.05 40.05 40.84 43.06 47.51 48.69 48.40 47.91 47.69 46.52
36.46 35.75 35.56 35.43 35.99 34.65 35.48 35.81 36.85 37.52 36.72 36.52 36.19 36.13 37.11 38.42 38.83 39.20 39.44 39.85 40.52 40.01 40.15 38.91 38.12 37.93 38.36 39.28 39.92 40.03 39.87 40.17 40.64 40.35 40.51 40.90 42.79 46.08 47.67 48.11 47.89 47.70 47.09
36.32 35.77 35.01 35.33 35.04 34.89 35.34 35.73 35.66 35.99 36.48 36.70 36.53 37.19 38.13 38.54 38.62 38.96 39.35 39.86 39.96 39.66 38.79 38.29 37.65 37.80 37.84 38.01 38.73 39.43 39.11 39.07 39.74 40.02 40.96 41.39 42.37 44.43 46.60 47.35 47.74 47.76 47.89
35.81 35.72 35.29 35.54 35.33 35.15 35.10 35.44 35.63 35.71 35.81 36.84 37.36 37.70 38.22 38.60 38.61 38.91 39.22 39.62 39.55 39.13 38.05 37.66 37.04 37.16 37.20 37.45 37.99 38.42 39.02 39.46 40.00 40.15 40.78 41.02 41.29 42.61 45.31 46.79 47.08 47.29 47.54

GFSGL_sfc_wetblb_048.txt.gz
Wetbulb
40.95 40.85 40.50 41.09 41.95 42.42 42.17 42.08 42.25 42.48 42.52 42.44 42.66 42.74 42.85 43.15 44.05 44.14 43.98 44.26 43.16 44.09 45.46 44.59 44.19 45.64 47.32 47.10 47.60 48.10 48.30 48.05 44.45 44.61 46.87 50.26 52.93 52.78 52.22 52.10 52.64 51.87 55.39
40.54 40.54 40.99 41.80 41.87 41.25 41.59 42.07 42.48 41.93 42.56 42.23 41.98 41.56 41.54 41.83 42.32 42.70 43.30 43.74 42.88 43.30 44.50 44.84 44.15 46.06 46.23 45.87 47.40 44.67 47.19 49.13 45.32 42.69 44.82 46.05 48.75 52.23 52.19 50.08 49.97 51.89 51.86
40.57 40.66 40.91 40.72 40.85 40.98 41.16 41.43 41.92 40.96 40.74 41.15 41.78 41.11 40.59 40.79 40.96 41.56 42.27 43.45 43.06 43.56 44.02 43.54 44.63 44.65 44.56 45.86 45.64 45.19 45.31 46.85 46.35 44.75 43.93 45.69 46.85 48.22 50.79 50.06 47.73 47.37 51.10
40.60 39.98 39.54 39.88 40.38 40.56 40.43 40.22 40.41 41.21 40.83 41.19 41.76 41.62 41.37 41.01 40.80 41.15 41.69 41.93 42.00 43.14 44.51 44.72 44.46 44.10 43.81 44.98 45.37 44.40 44.73 43.94 45.49 46.47 46.33 44.59 45.27 46.56 48.02 47.27 46.30 47.31 46.06
39.53 38.85 38.93 39.71 39.51 39.31 39.54 40.29 40.59 40.97 40.62 41.08 40.75 41.01 41.19 41.22 41.65 40.76 41.03 41.23 41.51 41.80 43.44 44.32 44.50 45.88 48.16 47.77 45.01 43.96 45.52 43.14 44.77 45.10 42.39 42.55 43.04 43.66 44.35 46.86 45.52 45.96 45.41
38.65 38.53 39.03 38.81 38.76 38.52 39.51 39.73 39.70 39.67 40.01 40.28 40.12 40.40 40.36 41.77 44.02 45.12 43.59 40.98 41.19 41.28 41.59 43.23 43.67 46.69 46.62 48.32 49.22 49.42 46.32 41.78 41.08 44.35 45.00 43.86 41.89 43.19 44.11 46.04 44.50 43.61 42.41
37.75 37.75 37.91 38.37 38.11 38.87 39.42 39.45 39.13 38.97 39.57 39.19 40.28 40.37 40.11 40.93 44.68 45.80 45.13 41.95 41.17 41.36 41.98 42.77 43.48 45.20 45.50 44.95 46.72 50.36 49.65 50.48 49.40 43.61 44.47 44.88 42.41 43.65 45.48 44.01 44.85 44.06 43.19
36.54 36.57 37.39 38.45 38.11 38.54 38.64 37.99 38.34 39.17 39.03 39.85 40.04 40.15 39.17 39.91 44.16 44.50 44.95 41.83 41.40 41.66 42.61 43.02 42.93 42.07 42.94 43.44 43.98 42.56 42.02 42.99 44.76 46.32 44.38 44.38 44.23 44.72 45.63 48.28 46.46 45.48 45.69
35.88 36.12 37.92 38.35 37.43 37.85 36.91 37.33 38.42 38.65 39.14 39.73 40.34 38.68 38.19 39.03 43.36 43.54 43.26 40.91 40.73 41.21 42.56 43.05 43.09 42.89 45.01 46.73 44.56 43.37 41.28 41.24 48.78 50.22 49.72 50.49 51.62 51.95 49.40 46.05 45.44 43.83 43.44
36.09 37.55 38.58 37.97 37.50 37.36 37.53 37.64 38.61 39.13 39.02 39.68 40.00 39.20 40.37 38.99 42.33 43.33 42.64 40.64 39.42 40.30 42.03 41.73 45.13 43.76 46.03 47.24 42.19 39.81 38.78 39.00 40.81 41.20 42.02 46.18 48.86 48.96 52.86 48.14 46.77 44.39 42.28
37.19 38.07 37.81 37.99 37.87 37.92 37.87 38.37 38.28 38.33 39.05 39.06 39.42 39.02 38.51 38.74 38.49 43.08 43.72 40.48 39.95 39.68 40.14 39.95 41.47 45.29 46.77 47.25 47.31 40.13 39.95 41.48 43.36 41.56 42.21 42.46 44.29 46.87 48.53 50.12 47.85 46.42 44.89
37.62 37.28 37.14 37.91 38.15 38.33 37.91 38.21 39.00 39.18 38.16 38.27 38.71 38.67 39.09 38.85 41.95 42.42 43.52 43.44 43.10 39.70 38.99 40.50 41.78 44.95 45.86 46.22 46.15 46.61 47.18 46.66 41.34 40.99 41.74 42.35 42.96 44.79 47.38 48.41 47.99 48.78 48.01
36.90 36.72 37.18 37.76 38.27 38.36 38.22 38.25 38.06 38.30 37.77 37.68 38.20 38.02 38.21 39.06 39.59 43.07 43.42 43.29 43.50 40.85 41.30 42.53 43.96 44.34 44.76 44.31 45.85 46.50 46.94 41.37 41.13 41.59 41.74 42.30 44.82 45.21 46.92 47.71 48.25 48.65 47.64
36.35 36.77 37.19 37.21 37.81 38.37 38.72 38.55 37.95 37.36 37.38 37.95 38.09 37.99 38.42 38.92 39.17 40.13 38.91 38.85 41.71 41.63 43.22 42.34 43.07 42.71 43.93 42.74 43.26 44.56 43.19 42.88 43.04 42.60 42.84 43.49 44.57 45.11 45.68 46.76 45.42 45.56 45.50
36.45 36.51 36.40 37.32 37.75 37.50 38.15 38.18 38.70 40.11 42.67 42.70 41.06 40.36 39.09 38.57 40.03 42.11 40.89 38.84 37.76 39.55 40.76 41.61 40.78 39.18 39.73 40.35 40.50 41.72 42.80 44.86 44.03 44.84 44.90 44.85 44.77 45.35 44.96 45.69 45.20 45.06 44.32
35.99 35.82 37.02 37.71 37.14 37.29 36.94 36.87 41.47 44.09 45.26 45.81 45.90 44.67 43.63 44.59 45.10 45.82 47.07 43.30 42.79 43.01 40.36 38.67 39.23 40.13 39.40 39.09 39.48 40.99 41.25 44.26 44.16 43.89 44.34 43.94 44.88 45.04 44.91 45.35 45.08 43.97 42.87
35.61 36.34 37.33 37.30 36.61 36.29 35.81 36.09 36.90 41.47 44.14 44.55 45.54 45.33 45.40 44.71 44.21 44.57 46.22 43.64 43.91 44.30 40.42 40.78 39.62 40.71 40.55 40.21 40.53 40.07 41.65 43.04 42.99 43.10 44.51 45.19 45.38 44.89 43.71 43.05 43.55 43.60 43.36
36.63 39.05 37.06 36.68 36.66 35.96 36.36 39.69 40.60 39.86 39.36 40.03 43.20 43.95 44.62 44.36 44.03 43.66 43.03 43.14 40.96 41.89 40.50 39.60 39.22 39.94 40.25 40.55 41.50 41.89 42.12 42.79 43.75 44.42 43.90 43.53 43.43 42.81 42.26 42.66 43.59 43.12 42.93
36.75 36.71 37.15 37.32 37.03 37.99 38.87 40.43 40.34 40.13 39.58 39.60 40.05 41.07 42.40 43.19 42.93 42.87 42.43 39.27 37.98 37.65 38.19 38.02 38.81 39.05 39.26 39.96 40.75 41.37 41.44 41.85 42.33 42.16 42.32 42.80 43.18 43.06 42.73 43.49 43.66 44.18 44.56
36.70 39.06 38.90 36.91 36.55 36.81 38.73 39.60 39.34 39.16 38.68 38.40 38.10 38.49 39.32 40.01 38.45 38.21 38.55 38.35 37.89 37.59 37.84 37.89 38.43 38.85 39.36 40.11 40.06 39.84 39.42 39.50 39.50 40.00 40.35 40.77 41.43 42.51 42.67 43.29 43.95 44.19 45.97
36.38 36.45 38.93 36.56 36.26 36.58 38.02 38.10 38.46 37.74 37.52 36.88 37.08 40.11 41.88 38.82 38.15 37.99 38.10 38.31 37.81 37.83 38.11 38.25 38.59 38.59 39.05 39.22 38.93 38.77 38.78 38.75 38.86 39.44 39.76 40.56 41.77 41.83 43.37 44.84 45.07 47.30 46.88
36.07 36.04 36.19 35.91 36.51 36.39 37.09 38.14 37.58 36.35 36.48 36.21 36.60 38.54 40.76 38.83 38.34 38.20 38.39 38.49 38.42 38.20 38.23 37.73 37.48 38.12 38.55 38.84 38.86 38.24 37.38 37.25 38.53 39.49 40.39 41.36 42.07 42.92 43.95 46.69 47.17 46.99 46.76
36.12 35.76 35.71 35.92 36.26 37.35 36.26 36.31 36.20 36.11 35.99 36.04 36.75 37.46 38.15 37.99 38.03 38.56 38.47 38.40 38.03 37.46 37.45 37.61 37.31 37.33 38.48 39.24 39.37 38.94 37.76 37.81 39.08 40.09 40.18 41.46 42.80 44.19 47.56 46.87 46.76 46.33 46.23
35.90 35.61 35.18 35.41 35.82 35.50 35.62 35.30 35.53 36.58 36.60 36.70 37.13 37.42 37.54 37.88 37.97 38.34 38.46 37.99 37.23 36.82 36.78 36.75 36.64 36.48 37.39 38.69 39.62 40.27 39.81 40.01 40.62 40.39 41.15 42.91 45.26 46.99 47.29 46.95 46.33 46.56 46.83
35.57 35.23 34.98 34.99 34.92 34.71 35.10 35.24 34.95 35.52 36.69 37.06 37.19 37.71 37.75 38.03 38.08 38.59 38.40 37.70 37.09 36.29 35.62 35.72 35.96 36.29 37.06 38.04 39.03 39.70 39.37 39.00 40.09 40.47 41.98 44.55 45.81 46.83 46.67 46.60 46.63 47.04 46.69
35.40 35.14 35.21 35.19 34.90 34.75 34.57 34.52 35.18 36.25 36.45 36.89 37.36 37.50 37.70 37.93 38.50 38.00 37.73 36.74 35.96 34.72 34.19 33.72 34.08 35.63 36.70 37.81 38.61 39.02 39.34 39.47 40.09 40.45 42.39 44.81 45.90 46.33 46.40 46.32 47.04 46.58 45.95